CES745 SAEZ-NZAA

Flight info

Callsign CES745
Flight time N/A
Altitude 30000
Route TORU1E TORUL UT654 ORERA UW34 BAR UM658 MON DCT 44S080W DCT 44S090W DCT 44S100W DCT 45S110W DCT 45S120W DCT 45S125W DCT 44S130W DCT 44S131W DCT 40S140W DCT 40S150W DCT 40S160W DCT 40S170W DCT 39S180E DCT GS H117 DODKU DODK1D
Aircraft B77W/H-SDE1E2E3FGHIJ2J3J4J5M1RWXY/LB1D1

Departure

Time 2026-04-28 17:40
Airport Ezeiza International Airport - Ministro Pistarini (SAEZ)

Arrival

Time N/A
Airport Auckland International Airport (NZAA)
Time Latitude Longitude Altitude Speed Heading
2026-04-28 17:37 -34.82335 -58.51784 76 ft 6 kts 183°
2026-04-28 17:37 -34.82377 -58.51795 76 ft 6 kts 194°
2026-04-28 17:37 -34.82418 -58.51807 76 ft 6 kts 194°
2026-04-28 17:37 -34.82461 -58.51820 76 ft 6 kts 194°
2026-04-28 17:38 -34.82504 -58.51834 76 ft 6 kts 199°
2026-04-28 17:38 -34.82526 -58.51869 76 ft 4 kts 265°
2026-04-28 17:38 -34.82521 -58.51907 76 ft 4 kts 282°
2026-04-28 17:38 -34.82514 -58.51946 76 ft 6 kts 282°
2026-04-28 17:39 -34.82489 -58.52082 76 ft 37 kts 283°
2026-04-28 17:39 -34.82386 -58.52658 77 ft 101 kts 282°
2026-04-28 17:39 -34.81918 -58.55277 220 ft 199 kts 284°
2026-04-28 17:40 -34.81593 -58.57003 627 ft 218 kts 284°
2026-04-28 17:40 -34.81280 -58.58815 1491 ft 219 kts 284°
2026-04-28 17:40 -34.81016 -58.60590 2096 ft 221 kts 273°
2026-04-28 17:40 -34.81317 -58.62487 2426 ft 236 kts 247°
2026-04-28 17:41 -34.82296 -58.64104 3012 ft 244 kts 226°
2026-04-28 17:41 -34.83779 -58.65214 3581 ft 252 kts 210°
2026-04-28 17:41 -34.85357 -58.66098 4264 ft 251 kts 209°
2026-04-28 17:41 -34.86954 -58.66980 4878 ft 251 kts 209°
2026-04-28 17:42 -34.88541 -58.67855 5555 ft 249 kts 209°
2026-04-28 17:42 -34.90105 -58.68719 6188 ft 247 kts 209°
2026-04-28 17:42 -34.91640 -58.69622 6776 ft 245 kts 218°
2026-04-28 17:42 -34.92891 -58.71014 7218 ft 244 kts 235°
2026-04-28 17:43 -34.93898 -58.72652 7817 ft 242 kts 237°
2026-04-28 17:43 -34.94886 -58.74308 8379 ft 243 kts 236°
2026-04-28 17:43 -34.95885 -58.75983 8903 ft 245 kts 236°
2026-04-28 17:43 -34.96896 -58.77673 9414 ft 247 kts 236°
2026-04-28 17:44 -34.97905 -58.79361 9895 ft 249 kts 236°
2026-04-28 17:44 -34.98937 -58.81088 10291 ft 256 kts 236°
2026-04-28 17:44 -35.00016 -58.82896 10566 ft 267 kts 236°
2026-04-28 17:44 -35.01114 -58.84727 11068 ft 269 kts 236°
2026-04-28 17:45 -35.02238 -58.86568 11623 ft 270 kts 236°
2026-04-28 17:45 -35.03360 -58.88406 12031 ft 276 kts 236°
2026-04-28 17:45 -35.04538 -58.90343 12159 ft 293 kts 236°
2026-04-28 17:45 -35.05779 -58.92382 12291 ft 309 kts 236°
2026-04-28 17:46 -35.07114 -58.94576 12413 ft 326 kts 236°
2026-04-28 17:46 -35.08490 -58.96843 12589 ft 341 kts 236°
2026-04-28 17:46 -35.09920 -58.99201 12743 ft 356 kts 236°
2026-04-28 17:46 -35.11430 -59.01688 13171 ft 363 kts 236°
2026-04-28 17:47 -35.12915 -59.04137 13812 ft 364 kts 236°
2026-04-28 17:47 -35.14433 -59.06640 14444 ft 365 kts 235°
2026-04-28 17:47 -35.15950 -59.09147 15038 ft 367 kts 235°
2026-04-28 17:47 -35.16964 -59.10821 15424 ft 369 kts 235°
2026-04-28 17:48 -35.19002 -59.14192 16169 ft 372 kts 234°
2026-04-28 17:48 -35.20536 -59.16738 16685 ft 375 kts 235°
2026-04-28 17:48 -35.22054 -59.19367 17241 ft 377 kts 236°
2026-04-28 17:48 -35.23560 -59.21994 17765 ft 379 kts 236°
2026-04-28 17:49 -35.25081 -59.24649 18306 ft 381 kts 235°
2026-04-28 17:49 -35.26590 -59.27280 18784 ft 384 kts 235°
2026-04-28 17:49 -35.28145 -59.29992 19219 ft 387 kts 234°
2026-04-28 17:49 -35.29703 -59.32709 19647 ft 391 kts 234°
2026-04-28 17:50 -35.31266 -59.35438 20134 ft 393 kts 234°
2026-04-28 17:50 -35.32830 -59.38168 20604 ft 395 kts 233°
2026-04-28 17:50 -35.34424 -59.40953 21005 ft 399 kts 233°
2026-04-28 17:50 -35.36016 -59.43735 21413 ft 402 kts 233°
2026-04-28 17:51 -35.37630 -59.46519 21805 ft 405 kts 232°
2026-04-28 17:51 -35.39296 -59.49352 22235 ft 407 kts 232°
2026-04-28 17:51 -35.40934 -59.52142 22625 ft 409 kts 231°
2026-04-28 17:51 -35.42621 -59.55016 22965 ft 413 kts 231°
2026-04-28 17:52 -35.44315 -59.57909 23342 ft 416 kts 231°
2026-04-28 17:52 -35.45989 -59.60771 23770 ft 417 kts 231°
2026-04-28 17:52 -35.49390 -59.66593 24568 ft 420 kts 231°
2026-04-28 17:53 -35.51082 -59.69495 24960 ft 422 kts 230°
2026-04-28 17:53 -35.52816 -59.72469 25273 ft 425 kts 230°
2026-04-28 17:53 -35.54525 -59.75403 25629 ft 427 kts 230°
2026-04-28 17:53 -35.56260 -59.78387 26012 ft 429 kts 230°
2026-04-28 17:54 -35.58006 -59.81390 26351 ft 431 kts 230°
2026-04-28 17:54 -35.59749 -59.84392 26690 ft 433 kts 229°
2026-04-28 17:54 -35.61486 -59.87386 27050 ft 435 kts 229°
2026-04-28 17:54 -35.63255 -59.90437 27417 ft 436 kts 229°
2026-04-28 17:55 -35.65022 -59.93487 27754 ft 438 kts 229°
2026-04-28 17:55 -35.66775 -59.96518 28105 ft 440 kts 229°
2026-04-28 17:55 -35.68566 -59.99614 28425 ft 442 kts 229°
2026-04-28 17:55 -35.70336 -60.02679 28754 ft 443 kts 229°
2026-04-28 17:56 -35.72136 -60.05796 29013 ft 447 kts 229°
2026-04-28 17:56 -35.73938 -60.08922 29260 ft 450 kts 229°
2026-04-28 17:56 -35.75753 -60.12072 29613 ft 450 kts 229°
2026-04-28 17:56 -35.77542 -60.15182 29929 ft 451 kts 229°
2026-04-28 17:57 -35.81170 -60.21499 29933 ft 443 kts 229°
2026-04-28 17:57 -35.84715 -60.27678 29929 ft 443 kts 229°
2026-04-28 17:58 -35.88264 -60.33872 29930 ft 444 kts 229°
2026-04-28 17:58 -35.91816 -60.40085 29925 ft 443 kts 229°
2026-04-28 17:59 -35.95382 -60.46334 29923 ft 444 kts 229°
2026-04-28 17:59 -35.98925 -60.52554 29919 ft 444 kts 229°
2026-04-28 18:00 -36.02474 -60.58795 29919 ft 443 kts 229°
2026-04-28 18:00 -36.06006 -60.65020 29921 ft 442 kts 229°
2026-04-28 18:01 -36.09557 -60.71285 29915 ft 443 kts 230°
2026-04-28 18:01 -36.13066 -60.77492 29934 ft 441 kts 230°
2026-04-28 18:02 -36.16580 -60.83757 29936 ft 442 kts 230°
2026-04-28 18:02 -36.20067 -60.89988 29932 ft 444 kts 230°
2026-04-28 18:03 -36.23558 -60.96241 29931 ft 441 kts 230°
2026-04-28 18:03 -36.27061 -61.02523 29934 ft 442 kts 230°
2026-04-28 18:04 -36.30544 -61.08779 29933 ft 442 kts 230°
2026-04-28 18:04 -36.34065 -61.15117 29926 ft 442 kts 230°
2026-04-28 18:05 -36.36975 -61.20366 29924 ft 441 kts 230°
2026-04-28 18:05 -36.41069 -61.27764 29925 ft 440 kts 230°
2026-04-28 18:06 -36.44574 -61.34111 29917 ft 440 kts 230°
2026-04-28 18:06 -36.48053 -61.40423 29911 ft 441 kts 230°
2026-04-28 18:07 -36.51593 -61.46858 29911 ft 442 kts 231°
2026-04-28 18:07 -36.55117 -61.53277 29898 ft 442 kts 231°
2026-04-28 18:08 -36.58655 -61.59734 29887 ft 443 kts 230°
2026-04-28 18:08 -36.62175 -61.66169 29886 ft 440 kts 231°
2026-04-28 18:09 -36.65631 -61.72496 29883 ft 447 kts 231°
2026-04-28 18:09 -36.69119 -61.78900 29883 ft 443 kts 231°
2026-04-28 18:10 -36.72578 -61.85260 29884 ft 445 kts 231°
2026-04-28 18:10 -36.76043 -61.91642 29881 ft 445 kts 232°
2026-04-28 18:11 -36.79518 -61.98057 29878 ft 445 kts 231°
2026-04-28 18:11 -36.82984 -62.04463 29872 ft 446 kts 232°
2026-04-28 18:12 -36.86427 -62.10842 29866 ft 445 kts 232°
2026-04-28 18:12 -36.89912 -62.17312 29863 ft 445 kts 232°
2026-04-28 18:13 -36.93370 -62.23740 29868 ft 446 kts 232°
2026-04-28 18:13 -36.96856 -62.30235 29865 ft 447 kts 231°
2026-04-28 18:14 -37.00351 -62.36761 29875 ft 445 kts 232°
2026-04-28 18:14 -37.03780 -62.43176 29864 ft 444 kts 232°
2026-04-28 18:15 -37.07241 -62.49660 29864 ft 446 kts 232°
2026-04-28 18:15 -37.10689 -62.56134 29875 ft 445 kts 232°
2026-04-28 18:16 -37.14115 -62.62581 29871 ft 444 kts 232°
2026-04-28 18:16 -37.17550 -62.69054 29882 ft 445 kts 233°
2026-04-28 18:17 -37.20951 -62.75478 29875 ft 442 kts 233°
2026-04-28 18:17 -37.24388 -62.81979 29880 ft 446 kts 233°
2026-04-28 18:18 -37.27817 -62.88482 29869 ft 443 kts 233°
2026-04-28 18:18 -37.30673 -62.93906 29859 ft 443 kts 233°
2026-04-28 18:19 -37.34640 -63.01455 29851 ft 443 kts 233°
2026-04-28 18:19 -37.38080 -63.07993 29857 ft 443 kts 233°
2026-04-28 18:20 -37.41513 -63.14527 29858 ft 443 kts 234°
2026-04-28 18:20 -37.44953 -63.21087 29853 ft 443 kts 233°
2026-04-28 18:21 -37.48395 -63.27666 29854 ft 443 kts 233°
2026-04-28 18:21 -37.51844 -63.34269 29856 ft 444 kts 233°
2026-04-28 18:22 -37.55259 -63.40820 29851 ft 445 kts 234°
2026-04-28 18:22 -37.58713 -63.47461 29851 ft 444 kts 234°
2026-04-28 18:23 -37.62154 -63.54090 29843 ft 447 kts 234°
2026-04-28 18:23 -37.65530 -63.60607 29839 ft 447 kts 234°
2026-04-28 18:24 -37.68375 -63.66108 29837 ft 447 kts 234°
2026-04-28 18:24 -37.72346 -63.73801 29841 ft 450 kts 234°
2026-04-28 18:25 -37.75763 -63.80436 29835 ft 451 kts 234°
2026-04-28 18:26 -37.80870 -63.90378 29835 ft 453 kts 234°
2026-04-28 18:26 -37.84293 -63.97059 29833 ft 452 kts 235°
2026-04-28 18:27 -37.87710 -64.03741 29823 ft 453 kts 234°
2026-04-28 18:27 -37.91121 -64.10425 29819 ft 454 kts 234°
2026-04-28 18:28 -37.94531 -64.17122 29818 ft 452 kts 234°
2026-04-28 18:28 -37.97926 -64.23800 29820 ft 452 kts 235°
2026-04-28 18:29 -38.01337 -64.30526 29822 ft 454 kts 235°
2026-04-28 18:29 -38.04750 -64.37270 29823 ft 453 kts 235°
2026-04-28 18:30 -38.08152 -64.44005 29819 ft 453 kts 235°
2026-04-28 18:30 -38.11562 -64.50772 29834 ft 454 kts 235°
2026-04-28 18:31 -38.14932 -64.57489 29834 ft 454 kts 235°
2026-04-28 18:31 -38.18314 -64.64244 29831 ft 452 kts 235°
2026-04-28 18:32 -38.21690 -64.70999 29838 ft 453 kts 236°
2026-04-28 18:32 -38.25068 -64.77771 29831 ft 451 kts 236°
2026-04-28 18:33 -38.28410 -64.84486 29829 ft 452 kts 236°
2026-04-28 18:33 -38.31791 -64.91294 29834 ft 454 kts 236°
2026-04-28 18:34 -38.35141 -64.98054 29827 ft 452 kts 236°
2026-04-28 18:34 -38.38500 -65.04845 29821 ft 452 kts 236°
2026-04-28 18:35 -38.41850 -65.11633 29813 ft 453 kts 236°
2026-04-28 18:35 -38.45214 -65.18462 29813 ft 455 kts 236°
2026-04-28 18:36 -38.48597 -65.25346 29798 ft 453 kts 236°
2026-04-28 18:36 -38.51952 -65.32185 29798 ft 455 kts 236°
2026-04-28 18:37 -38.55289 -65.39005 29793 ft 451 kts 237°
2026-04-28 18:37 -38.58620 -65.45826 29787 ft 454 kts 236°
2026-04-28 18:38 -38.61950 -65.52657 29788 ft 451 kts 237°
2026-04-28 18:38 -38.65263 -65.59470 29789 ft 450 kts 236°
2026-04-28 18:39 -38.68576 -65.66298 29794 ft 452 kts 237°
2026-04-28 18:39 -38.71883 -65.73127 29796 ft 451 kts 238°
2026-04-28 18:40 -38.75190 -65.79970 29795 ft 451 kts 238°
2026-04-28 18:40 -38.78509 -65.86853 29790 ft 453 kts 238°
2026-04-28 18:41 -38.81819 -65.93733 29787 ft 452 kts 238°
2026-04-28 18:41 -38.85099 -66.00565 29779 ft 450 kts 238°
2026-04-28 18:42 -38.88394 -66.07441 29785 ft 452 kts 238°
2026-04-28 18:42 -38.91671 -66.14299 29776 ft 450 kts 238°
2026-04-28 18:43 -38.94941 -66.21179 29777 ft 449 kts 238°
2026-04-28 18:43 -38.98178 -66.28000 29768 ft 450 kts 238°
2026-04-28 18:44 -39.01451 -66.34914 29767 ft 449 kts 238°
2026-04-28 18:44 -39.06314 -66.45215 29765 ft 451 kts 238°
2026-04-28 18:45 -39.09296 -66.51547 29768 ft 446 kts 238°
2026-04-28 18:45 -39.12535 -66.58437 29777 ft 449 kts 238°
2026-04-28 18:46 -39.15771 -66.65338 29770 ft 447 kts 239°
2026-04-28 18:46 -39.18979 -66.72192 29787 ft 447 kts 239°
2026-04-28 18:47 -39.22204 -66.79101 29771 ft 450 kts 239°
2026-04-28 18:47 -39.25423 -66.86011 29761 ft 445 kts 239°
2026-04-28 18:48 -39.28618 -66.92883 29752 ft 446 kts 239°
2026-04-28 18:48 -39.31791 -66.99722 29751 ft 446 kts 239°
2026-04-28 18:49 -39.34449 -67.05463 29760 ft 448 kts 239°
2026-04-28 18:49 -39.38166 -67.13510 29751 ft 447 kts 239°
2026-04-28 18:50 -39.41353 -67.20425 29743 ft 446 kts 239°
2026-04-28 18:50 -39.44529 -67.27332 29732 ft 447 kts 239°
2026-04-28 18:51 -39.47705 -67.34253 29729 ft 443 kts 239°
2026-04-28 18:51 -39.50989 -67.41428 29727 ft 445 kts 240°
2026-04-28 18:52 -39.54139 -67.48325 29800 ft 449 kts 239°
2026-04-28 18:52 -39.55771 -67.51904 30196 ft 449 kts 240°
2026-04-28 18:52 -39.57433 -67.55551 31005 ft 440 kts 239°
2026-04-28 18:53 -39.58994 -67.58983 31633 ft 435 kts 239°
2026-04-28 18:53 -39.60550 -67.62406 31721 ft 435 kts 240°
2026-04-28 18:53 -39.63634 -67.69202 31742 ft 429 kts 240°
2026-04-28 18:54 -39.66676 -67.75922 31727 ft 432 kts 241°
2026-04-28 18:54 -39.69706 -67.82629 31733 ft 429 kts 240°
2026-04-28 18:55 -39.72236 -67.88241 31725 ft 433 kts 241°
2026-04-28 18:55 -39.75780 -67.96116 31714 ft 431 kts 242°
2026-04-28 18:56 -39.78807 -68.02863 31711 ft 432 kts 242°
2026-04-28 18:56 -39.81859 -68.09603 31716 ft 429 kts 239°
2026-04-28 18:57 -39.85217 -68.16147 31723 ft 433 kts 238°
2026-04-28 18:57 -39.88628 -68.22804 31714 ft 431 kts 238°
2026-04-28 18:58 -39.91955 -68.29340 31714 ft 431 kts 238°
2026-04-28 18:58 -39.95376 -68.36089 31730 ft 431 kts 239°
2026-04-28 18:59 -39.98695 -68.42658 31727 ft 432 kts 239°
2026-04-28 18:59 -40.01982 -68.49180 31726 ft 430 kts 239°
2026-04-28 19:00 -40.05268 -68.55717 31720 ft 430 kts 239°
2026-04-28 19:00 -40.08635 -68.62431 31718 ft 429 kts 239°
2026-04-28 19:01 -40.11924 -68.69002 31735 ft 432 kts 240°
2026-04-28 19:01 -40.15226 -68.75613 31733 ft 430 kts 239°
2026-04-28 19:02 -40.18475 -68.82131 31728 ft 430 kts 240°
2026-04-28 19:02 -40.21738 -68.88691 31732 ft 428 kts 240°
2026-04-28 19:03 -40.24986 -68.95236 31732 ft 429 kts 240°
2026-04-28 19:03 -40.28202 -69.01728 31730 ft 426 kts 240°
2026-04-28 19:04 -40.31450 -69.08301 31728 ft 429 kts 240°
2026-04-28 19:04 -40.34661 -69.14811 31699 ft 426 kts 241°
2026-04-28 19:05 -40.37889 -69.21369 31703 ft 429 kts 240°
2026-04-28 19:05 -40.41109 -69.27920 31700 ft 426 kts 241°
2026-04-28 19:06 -40.43791 -69.33388 31708 ft 428 kts 241°
2026-04-28 19:06 -40.47541 -69.41049 31687 ft 426 kts 241°
2026-04-28 19:07 -40.50713 -69.47545 31691 ft 425 kts 241°
2026-04-28 19:07 -40.53921 -69.54132 31680 ft 428 kts 241°
2026-04-28 19:08 -40.57101 -69.60671 31685 ft 426 kts 241°
2026-04-28 19:08 -40.60302 -69.67268 31681 ft 426 kts 242°
2026-04-28 19:09 -40.63491 -69.73854 31686 ft 427 kts 242°
2026-04-28 19:09 -40.66692 -69.80479 31671 ft 424 kts 242°
2026-04-28 19:10 -40.69873 -69.87078 31684 ft 425 kts 242°
2026-04-28 19:10 -40.73035 -69.93652 31681 ft 424 kts 242°
2026-04-28 19:11 -40.76205 -70.00256 31687 ft 426 kts 242°
2026-04-28 19:11 -40.79354 -70.06827 31679 ft 425 kts 242°
2026-04-28 19:12 -40.82509 -70.13427 31673 ft 424 kts 242°
2026-04-28 19:12 -40.85646 -70.20004 31664 ft 425 kts 242°
2026-04-28 19:13 -40.88796 -70.26623 31654 ft 423 kts 242°
2026-04-28 19:13 -40.91923 -70.33206 31649 ft 422 kts 242°
2026-04-28 19:14 -40.95055 -70.39817 31636 ft 425 kts 242°
2026-04-28 19:14 -40.97733 -70.46639 31638 ft 414 kts 253°
2026-04-28 19:15 -40.99466 -70.53947 31639 ft 417 kts 255°
2026-04-28 19:15 -41.00856 -70.60041 31626 ft 413 kts 256°
2026-04-28 19:16 -41.02800 -70.68614 31650 ft 418 kts 255°
2026-04-28 19:16 -41.04462 -70.75977 31651 ft 413 kts 256°
2026-04-28 19:17 -41.06103 -70.83283 31643 ft 414 kts 255°
2026-04-28 19:17 -41.07738 -70.90582 31656 ft 412 kts 256°
2026-04-28 19:18 -41.09372 -70.97905 31635 ft 415 kts 256°
2026-04-28 19:18 -41.10990 -71.05182 31632 ft 412 kts 255°
2026-04-28 19:19 -41.12619 -71.12528 31623 ft 412 kts 256°
2026-04-28 19:19 -41.14169 -71.19845 31631 ft 407 kts 259°
2026-04-28 19:20 -41.15329 -71.27232 31627 ft 409 kts 259°
2026-04-28 19:20 -41.16465 -71.34547 31631 ft 404 kts 259°
2026-04-28 19:21 -41.17591 -71.41830 31624 ft 404 kts 260°
2026-04-28 19:21 -41.18712 -71.49109 31643 ft 400 kts 260°
2026-04-28 19:22 -41.19642 -71.55171 31630 ft 402 kts 260°
2026-04-28 19:22 -41.20932 -71.63621 31626 ft 398 kts 259°
2026-04-28 19:23 -41.22024 -71.70806 31671 ft 399 kts 260°
2026-04-28 19:23 -41.23107 -71.77968 31672 ft 394 kts 259°
2026-04-28 19:24 -41.24186 -71.85129 31656 ft 394 kts 260°
2026-04-28 19:24 -41.25311 -71.92184 31678 ft 391 kts 260°
2026-04-28 19:25 -41.26444 -71.99242 31680 ft 390 kts 259°
2026-04-28 19:25 -41.27577 -72.06339 31666 ft 392 kts 260°
2026-04-28 19:26 -41.28696 -72.13393 31681 ft 389 kts 259°
2026-04-28 19:26 -41.29806 -72.20418 31684 ft 391 kts 260°
2026-04-28 19:27 -41.30925 -72.27539 31696 ft 393 kts 260°
2026-04-28 19:27 -41.32041 -72.34668 31693 ft 391 kts 259°
2026-04-28 19:28 -41.33147 -72.41755 31704 ft 392 kts 259°
2026-04-28 19:28 -41.34253 -72.48888 31702 ft 395 kts 259°
2026-04-28 19:29 -41.35182 -72.54893 31705 ft 394 kts 259°
2026-04-28 19:29 -41.36391 -72.63220 31712 ft 394 kts 260°
2026-04-28 19:30 -41.37423 -72.70421 31733 ft 396 kts 261°
2026-04-28 19:30 -41.38455 -72.77634 31731 ft 393 kts 261°
2026-04-28 19:31 -41.39481 -72.84840 31739 ft 396 kts 261°
2026-04-28 19:31 -41.40506 -72.92066 31736 ft 397 kts 261°
2026-04-28 19:32 -41.41521 -72.99255 31737 ft 395 kts 261°
2026-04-28 19:32 -41.42592 -73.06490 31729 ft 400 kts 257°
2026-04-28 19:33 -41.44644 -73.13425 31724 ft 401 kts 245°
2026-04-28 19:33 -41.47368 -73.19917 31732 ft 405 kts 245°
2026-04-28 19:34 -41.50125 -73.26495 31734 ft 401 kts 245°
2026-04-28 19:34 -41.52840 -73.33008 31734 ft 404 kts 245°
2026-04-28 19:35 -41.55561 -73.39558 31731 ft 402 kts 245°
2026-04-28 19:35 -41.58273 -73.46107 31730 ft 404 kts 244°
2026-04-28 19:36 -41.61000 -73.52710 31735 ft 405 kts 245°
2026-04-28 19:36 -41.63703 -73.59265 31727 ft 404 kts 245°
2026-04-28 19:37 -41.65973 -73.64786 31726 ft 404 kts 244°
2026-04-28 19:37 -41.69116 -73.72443 31747 ft 404 kts 245°
2026-04-28 19:38 -41.71835 -73.79086 31746 ft 404 kts 245°
2026-04-28 19:38 -41.74513 -73.85644 31748 ft 402 kts 245°
2026-04-28 19:39 -41.77218 -73.92281 31752 ft 405 kts 245°
2026-04-28 19:39 -41.79929 -73.98948 31739 ft 405 kts 245°
2026-04-28 19:40 -41.82603 -74.05539 31750 ft 404 kts 245°
2026-04-28 19:40 -41.85312 -74.12233 31761 ft 406 kts 244°
2026-04-28 19:41 -41.88010 -74.18912 31756 ft 405 kts 244°
2026-04-28 19:41 -41.90708 -74.25609 31746 ft 406 kts 244°
2026-04-28 19:42 -41.93405 -74.32318 31755 ft 404 kts 244°
2026-04-28 19:42 -41.95657 -74.37932 31741 ft 407 kts 244°
2026-04-28 19:43 -41.98803 -74.45791 31744 ft 405 kts 244°
2026-04-28 19:43 -42.01485 -74.52510 31742 ft 407 kts 244°
2026-04-28 19:44 -42.04172 -74.59257 31743 ft 406 kts 244°
2026-04-28 19:44 -42.06858 -74.66014 31754 ft 408 kts 244°
2026-04-28 19:45 -42.09516 -74.72720 31767 ft 407 kts 244°
2026-04-28 19:45 -42.12189 -74.79477 31760 ft 409 kts 244°
2026-04-28 19:46 -42.14860 -74.86244 31756 ft 408 kts 244°
2026-04-28 19:46 -42.17523 -74.93009 31751 ft 408 kts 244°
2026-04-28 19:47 -42.20184 -74.99784 31753 ft 410 kts 244°
2026-04-28 19:47 -42.22849 -75.06584 31745 ft 408 kts 244°
2026-04-28 19:48 -42.25485 -75.13325 31755 ft 410 kts 244°
2026-04-28 19:48 -42.28149 -75.20156 31759 ft 408 kts 244°
2026-04-28 19:49 -42.30788 -75.26938 31747 ft 410 kts 244°
2026-04-28 19:49 -42.33430 -75.33743 31752 ft 409 kts 244°
2026-04-28 19:50 -42.37378 -75.43944 31741 ft 409 kts 243°
2026-04-28 19:51 -42.40018 -75.50784 31750 ft 408 kts 243°
2026-04-28 19:51 -42.42648 -75.57616 31750 ft 410 kts 243°
2026-04-28 19:52 -42.45279 -75.64465 31747 ft 409 kts 243°
2026-04-28 19:52 -42.47904 -75.71317 31776 ft 409 kts 243°
2026-04-28 19:53 -42.50514 -75.78145 31778 ft 409 kts 243°
2026-04-28 19:53 -42.53110 -75.84953 31772 ft 409 kts 243°
2026-04-28 19:54 -42.55744 -75.91877 31769 ft 408 kts 243°
2026-04-28 19:54 -42.58365 -75.98783 31768 ft 408 kts 243°
2026-04-28 19:55 -42.60968 -76.05658 31769 ft 409 kts 243°
2026-04-28 19:55 -42.63593 -76.12608 31768 ft 407 kts 243°
2026-04-28 19:56 -42.66196 -76.19518 31770 ft 408 kts 243°
2026-04-28 19:56 -42.68803 -76.26453 31785 ft 408 kts 243°
2026-04-28 19:57 -42.71399 -76.33378 31775 ft 408 kts 243°
2026-04-28 19:57 -42.73987 -76.40299 31775 ft 408 kts 243°
2026-04-28 19:58 -42.76571 -76.47226 31782 ft 406 kts 243°
2026-04-28 19:58 -42.79138 -76.54124 31785 ft 407 kts 243°
2026-04-28 19:59 -42.81732 -76.61109 31794 ft 408 kts 243°
2026-04-28 19:59 -42.84324 -76.68110 31812 ft 408 kts 243°
2026-04-28 20:00 -42.86886 -76.75043 31804 ft 409 kts 243°
2026-04-28 20:00 -42.89449 -76.81998 31805 ft 409 kts 243°
2026-04-28 20:01 -42.92015 -76.88979 31809 ft 410 kts 243°
2026-04-28 20:01 -42.94608 -76.96050 31805 ft 409 kts 243°
2026-04-28 20:02 -42.97179 -77.03081 31804 ft 410 kts 243°
2026-04-28 20:02 -42.99770 -77.10183 31816 ft 409 kts 243°
2026-04-28 20:03 -43.02325 -77.17200 31811 ft 409 kts 243°
2026-04-28 20:03 -43.04908 -77.24318 31820 ft 410 kts 243°
2026-04-28 20:04 -43.07483 -77.31431 31808 ft 408 kts 243°
2026-04-28 20:04 -43.10033 -77.38492 31805 ft 409 kts 243°
2026-04-28 20:05 -43.12545 -77.45465 31825 ft 409 kts 243°
2026-04-28 20:05 -43.15057 -77.52453 31825 ft 409 kts 243°
2026-04-28 20:06 -43.17560 -77.59436 31825 ft 409 kts 243°
2026-04-28 20:06 -43.20092 -77.66520 31830 ft 409 kts 243°
2026-04-28 20:07 -43.22606 -77.73567 31845 ft 410 kts 243°
2026-04-28 20:07 -43.25105 -77.80593 31854 ft 409 kts 243°
2026-04-28 20:08 -43.27602 -77.87630 31859 ft 409 kts 243°
2026-04-28 20:08 -43.30104 -77.94701 31864 ft 410 kts 243°
2026-04-28 20:09 -43.32639 -78.01883 31856 ft 409 kts 243°
2026-04-28 20:09 -43.35171 -78.09074 31862 ft 409 kts 243°
2026-04-28 20:10 -43.37727 -78.16351 31855 ft 409 kts 243°
2026-04-28 20:10 -43.40236 -78.23516 31856 ft 410 kts 243°
2026-04-28 20:11 -43.42765 -78.30756 31860 ft 411 kts 243°
2026-04-28 20:11 -43.45278 -78.37972 31856 ft 410 kts 243°
2026-04-28 20:12 -43.47802 -78.45234 31866 ft 410 kts 243°
2026-04-28 20:12 -43.50297 -78.52436 31858 ft 409 kts 243°
2026-04-28 20:13 -43.52819 -78.59730 31864 ft 411 kts 243°
2026-04-28 20:13 -43.55315 -78.66971 31878 ft 410 kts 243°
2026-04-28 20:14 -43.57767 -78.74104 31880 ft 412 kts 243°
2026-04-28 20:14 -43.60222 -78.81262 31883 ft 412 kts 243°
2026-04-28 20:15 -43.62667 -78.88415 31881 ft 412 kts 243°
2026-04-28 20:15 -43.65163 -78.95731 31888 ft 413 kts 243°
2026-04-28 20:16 -43.67629 -79.02979 31884 ft 412 kts 243°
2026-04-28 20:16 -43.70114 -79.10306 31889 ft 411 kts 243°
2026-04-28 20:17 -43.72631 -79.17744 31892 ft 412 kts 243°
2026-04-28 20:17 -43.75093 -79.25041 31894 ft 412 kts 243°
2026-04-28 20:18 -43.77572 -79.32410 31898 ft 412 kts 243°
2026-04-28 20:18 -43.80049 -79.39790 31898 ft 412 kts 243°
2026-04-28 20:19 -43.82560 -79.47293 31896 ft 411 kts 243°
2026-04-28 20:19 -43.84994 -79.54588 31892 ft 412 kts 243°
2026-04-28 20:20 -43.87518 -79.62174 31905 ft 413 kts 243°
2026-04-28 20:20 -43.89933 -79.69449 31918 ft 413 kts 244°
2026-04-28 20:21 -43.92323 -79.76669 31924 ft 414 kts 244°
2026-04-28 20:21 -43.94711 -79.83906 31923 ft 414 kts 244°
2026-04-28 20:22 -43.97104 -79.91177 31931 ft 413 kts 244°
2026-04-28 20:22 -43.99245 -79.98732 31920 ft 416 kts 252°
2026-04-28 20:23 -44.00087 -80.06744 31935 ft 423 kts 261°
2026-04-28 20:23 -44.00533 -80.14881 31929 ft 422 kts 261°
2026-04-28 20:24 -44.00938 -80.23187 31931 ft 422 kts 261°
2026-04-28 20:24 -44.01313 -80.31604 31931 ft 422 kts 261°
2026-04-28 20:25 -44.01664 -80.39929 31942 ft 421 kts 262°
2026-04-28 20:25 -44.02007 -80.48380 31944 ft 422 kts 262°
2026-04-28 20:26 -44.02343 -80.56918 31942 ft 422 kts 262°
2026-04-28 20:26 -44.02671 -80.65415 31948 ft 421 kts 262°
2026-04-28 20:27 -44.02977 -80.73540 31959 ft 421 kts 262°
2026-04-28 20:27 -44.03278 -80.81685 31958 ft 422 kts 262°
2026-04-28 20:28 -44.03572 -80.89806 31956 ft 421 kts 262°
2026-04-28 20:28 -44.03865 -80.98074 31961 ft 423 kts 262°
2026-04-28 20:29 -44.04154 -81.06393 31964 ft 421 kts 262°
2026-04-28 20:29 -44.04439 -81.14745 31963 ft 422 kts 262°
2026-04-28 20:30 -44.04719 -81.23174 31964 ft 423 kts 262°
2026-04-28 20:30 -44.05000 -81.31785 31971 ft 423 kts 262°
2026-04-28 20:31 -44.05270 -81.40308 31976 ft 422 kts 262°
2026-04-28 20:31 -44.05543 -81.49093 31977 ft 423 kts 262°
2026-04-28 20:32 -44.05805 -81.57748 31977 ft 423 kts 262°
2026-04-28 20:32 -44.06056 -81.66251 31991 ft 422 kts 263°
2026-04-28 20:33 -44.06290 -81.74405 32006 ft 422 kts 263°
2026-04-28 20:33 -44.06519 -81.82557 32010 ft 423 kts 263°
2026-04-28 20:34 -44.06744 -81.90768 32016 ft 423 kts 263°
2026-04-28 20:34 -44.06966 -81.99107 32026 ft 424 kts 263°
2026-04-28 20:35 -44.07182 -82.07453 32014 ft 422 kts 263°
2026-04-28 20:35 -44.07399 -82.16081 32021 ft 422 kts 263°
2026-04-28 20:36 -44.07606 -82.24567 32020 ft 420 kts 263°
2026-04-28 20:36 -44.07811 -82.33202 32013 ft 422 kts 263°
2026-04-28 20:37 -44.08006 -82.41737 32015 ft 420 kts 263°
2026-04-28 20:37 -44.08197 -82.50335 32018 ft 421 kts 263°
2026-04-28 20:38 -44.08379 -82.58821 32014 ft 422 kts 263°
2026-04-28 20:38 -44.08556 -82.67406 32034 ft 422 kts 264°
2026-04-28 20:39 -44.08719 -82.75592 32036 ft 422 kts 264°
2026-04-28 20:39 -44.08877 -82.83798 32030 ft 422 kts 264°
2026-04-28 20:40 -44.09028 -82.91934 32031 ft 423 kts 264°
2026-04-28 20:40 -44.09177 -83.00344 32038 ft 422 kts 264°
2026-04-28 20:41 -44.09321 -83.08752 32049 ft 423 kts 264°
2026-04-28 20:41 -44.09458 -83.17172 32051 ft 423 kts 264°
2026-04-28 20:42 -44.09589 -83.25595 32065 ft 423 kts 264°
2026-04-28 20:42 -44.09715 -83.34099 32071 ft 421 kts 264°
2026-04-28 20:43 -44.09833 -83.42439 32066 ft 420 kts 264°
2026-04-28 20:43 -44.09947 -83.50970 32066 ft 421 kts 264°
2026-04-28 20:44 -44.10054 -83.59410 32080 ft 421 kts 264°
2026-04-28 20:44 -44.10151 -83.67547 32087 ft 420 kts 265°
2026-04-28 20:45 -44.10243 -83.75736 32092 ft 422 kts 264°
2026-04-28 20:45 -44.10327 -83.83817 32091 ft 420 kts 264°
2026-04-28 20:46 -44.10408 -83.91978 32098 ft 422 kts 265°
2026-04-28 20:46 -44.10482 -84.00276 32087 ft 420 kts 264°
2026-04-28 20:47 -44.10551 -84.08524 32092 ft 421 kts 265°
2026-04-28 20:47 -44.10615 -84.16871 32089 ft 420 kts 265°
2026-04-28 20:48 -44.10672 -84.25274 32099 ft 419 kts 264°
2026-04-28 20:48 -44.10724 -84.33534 32096 ft 419 kts 264°
2026-04-28 20:49 -44.10768 -84.41805 32092 ft 420 kts 264°
2026-04-28 20:49 -44.10807 -84.50087 32099 ft 417 kts 264°
2026-04-28 20:50 -44.10841 -84.58511 32096 ft 415 kts 264°
2026-04-28 20:50 -44.10868 -84.66691 32102 ft 417 kts 264°
2026-04-28 20:51 -44.10888 -84.74742 32116 ft 416 kts 264°
2026-04-28 20:51 -44.10902 -84.82748 32116 ft 414 kts 265°
2026-04-28 20:52 -44.10912 -84.90795 32120 ft 415 kts 264°
2026-04-28 20:52 -44.10915 -84.98835 32124 ft 412 kts 264°
2026-04-28 20:53 -44.10911 -85.11053 32110 ft 414 kts 265°
2026-04-28 20:53 -44.10899 -85.19302 32120 ft 411 kts 264°
2026-04-28 20:55 -44.10832 -85.44157 32110 ft 413 kts 264°
2026-04-28 20:55 -44.10796 -85.52274 32126 ft 406 kts 264°
2026-04-28 20:56 -44.10759 -85.60253 32106 ft 412 kts 264°
2026-04-28 20:56 -44.10712 -85.68520 32369 ft 415 kts 265°
2026-04-28 20:57 -44.10686 -85.72491 33082 ft 407 kts 264°
2026-04-28 20:57 -44.10657 -85.76344 33868 ft 397 kts 264°
2026-04-28 20:57 -44.10632 -85.80208 34156 ft 396 kts 264°
2026-04-28 20:57 -44.10606 -85.84005 34463 ft 395 kts 264°
2026-04-28 20:58 -44.10577 -85.87849 34888 ft 391 kts 263°
2026-04-28 20:58 -44.10547 -85.91614 35200 ft 390 kts 263°
2026-04-28 20:58 -44.10518 -85.95409 35389 ft 392 kts 264°
2026-04-28 20:58 -44.10486 -85.99326 35546 ft 394 kts 264°
2026-04-28 20:59 -44.10452 -86.03175 35731 ft 395 kts 264°
2026-04-28 20:59 -44.10416 -86.07076 36033 ft 394 kts 264°
2026-04-28 20:59 -44.10340 -86.14908 36142 ft 394 kts 264°
2026-04-28 21:00 -44.10300 -86.18864 36285 ft 395 kts 264°
2026-04-28 21:00 -44.10258 -86.22740 36153 ft 390 kts 264°
2026-04-28 21:00 -44.10172 -86.30527 36142 ft 389 kts 264°
2026-04-28 21:01 -44.10085 -86.38150 36150 ft 395 kts 264°
2026-04-28 21:01 -44.09988 -86.45900 36149 ft 395 kts 264°
2026-04-28 21:02 -44.09885 -86.53799 36157 ft 397 kts 264°
2026-04-28 21:02 -44.09775 -86.61730 36162 ft 393 kts 264°
2026-04-28 21:03 -44.09664 -86.69462 36195 ft 396 kts 264°
2026-04-28 21:03 -44.09547 -86.77127 36193 ft 393 kts 264°
2026-04-28 21:04 -44.09428 -86.84719 36200 ft 394 kts 264°
2026-04-28 21:04 -44.09302 -86.92358 36198 ft 395 kts 265°
2026-04-28 21:05 -44.09172 -86.99944 36195 ft 392 kts 264°
2026-04-28 21:05 -44.09036 -87.07641 36206 ft 395 kts 264°
2026-04-28 21:06 -44.08893 -87.15319 36199 ft 392 kts 264°
2026-04-28 21:06 -44.08744 -87.23157 36190 ft 393 kts 264°
2026-04-28 21:07 -44.08590 -87.30892 36188 ft 391 kts 264°
2026-04-28 21:07 -44.08430 -87.38733 36194 ft 392 kts 264°
2026-04-28 21:08 -44.08264 -87.46526 36195 ft 389 kts 265°
2026-04-28 21:08 -44.08096 -87.54250 36195 ft 390 kts 264°
2026-04-28 21:09 -44.07925 -87.61849 36197 ft 391 kts 264°
2026-04-28 21:09 -44.07748 -87.69430 36219 ft 385 kts 265°
2026-04-28 21:10 -44.07571 -87.76939 36217 ft 390 kts 265°
2026-04-28 21:10 -44.07386 -87.84437 36222 ft 386 kts 265°
2026-04-28 21:11 -44.07199 -87.91903 36223 ft 387 kts 265°
2026-04-28 21:11 -44.07006 -87.99365 36226 ft 387 kts 265°
2026-04-28 21:12 -44.06807 -88.06878 36224 ft 386 kts 265°
2026-04-28 21:12 -44.06601 -88.14497 36224 ft 390 kts 264°
2026-04-28 21:13 -44.06391 -88.21999 36223 ft 384 kts 265°
2026-04-28 21:13 -44.06176 -88.29590 36220 ft 386 kts 265°
2026-04-28 21:14 -44.05956 -88.37161 36222 ft 385 kts 265°
2026-04-28 21:14 -44.05731 -88.44694 36217 ft 385 kts 264°
2026-04-28 21:15 -44.05502 -88.52233 36216 ft 385 kts 265°
2026-04-28 21:15 -44.05268 -88.59749 36209 ft 384 kts 265°
2026-04-28 21:16 -44.05031 -88.67217 36240 ft 384 kts 266°
2026-04-28 21:16 -44.04792 -88.74591 36227 ft 383 kts 265°
2026-04-28 21:17 -44.04548 -88.82015 36231 ft 386 kts 266°
2026-04-28 21:17 -44.04297 -88.89427 36227 ft 383 kts 265°
2026-04-28 21:18 -44.04044 -88.96776 36227 ft 380 kts 265°
2026-04-28 21:18 -44.03788 -89.04127 36225 ft 383 kts 265°
2026-04-28 21:19 -44.03522 -89.11548 36229 ft 379 kts 265°
2026-04-28 21:19 -44.03256 -89.18961 36224 ft 384 kts 266°
2026-04-28 21:20 -44.02979 -89.26435 36226 ft 384 kts 266°
2026-04-28 21:20 -44.02700 -89.33839 36225 ft 381 kts 266°
2026-04-28 21:21 -44.02414 -89.41354 36224 ft 386 kts 266°
2026-04-28 21:21 -44.02121 -89.48839 36225 ft 382 kts 266°
2026-04-28 21:22 -44.01826 -89.56306 36224 ft 384 kts 266°
2026-04-28 21:22 -44.01577 -89.62543 36229 ft 387 kts 266°
2026-04-28 21:23 -44.01221 -89.71239 36245 ft 385 kts 266°
2026-04-28 21:23 -44.00912 -89.78686 36252 ft 388 kts 266°
2026-04-28 21:24 -44.00597 -89.86153 36247 ft 386 kts 267°
2026-04-28 21:24 -44.00278 -89.93604 36242 ft 387 kts 267°
2026-04-28 21:25 -43.99957 -90.01027 36240 ft 386 kts 267°
2026-04-28 21:25 -44.00248 -90.08432 36241 ft 382 kts 262°
2026-04-28 21:26 -44.00628 -90.15823 36246 ft 382 kts 261°
2026-04-28 21:26 -44.00969 -90.23246 36242 ft 384 kts 262°
2026-04-28 21:27 -44.01288 -90.30660 36244 ft 381 kts 262°
2026-04-28 21:27 -44.01595 -90.38046 36246 ft 384 kts 262°
2026-04-28 21:28 -44.01897 -90.45512 36246 ft 384 kts 262°
2026-04-28 21:28 -44.02190 -90.52917 36239 ft 384 kts 262°
2026-04-28 21:29 -44.02477 -90.60331 36247 ft 383 kts 262°
2026-04-28 21:29 -44.02760 -90.67744 36283 ft 384 kts 263°
2026-04-28 21:30 -44.03037 -90.75150 36287 ft 385 kts 262°
2026-04-28 21:30 -44.03309 -90.82543 36281 ft 384 kts 263°
2026-04-28 21:31 -44.03577 -90.89953 36281 ft 383 kts 263°
2026-04-28 21:31 -44.03838 -90.97306 36268 ft 385 kts 263°
2026-04-28 21:32 -44.04098 -91.04755 36261 ft 384 kts 263°
2026-04-28 21:32 -44.04352 -91.12170 36264 ft 385 kts 263°
2026-04-28 21:33 -44.04601 -91.19597 36264 ft 384 kts 263°
2026-04-28 21:33 -44.04845 -91.27032 36264 ft 384 kts 263°
2026-04-28 21:34 -44.05085 -91.34463 36265 ft 385 kts 263°
2026-04-28 21:34 -44.05322 -91.41947 36261 ft 384 kts 264°
2026-04-28 21:35 -44.05550 -91.49332 36262 ft 384 kts 263°
2026-04-28 21:35 -44.05776 -91.56773 36262 ft 385 kts 264°
2026-04-28 21:36 -44.05998 -91.64268 36266 ft 385 kts 263°
2026-04-28 21:36 -44.06213 -91.71682 36287 ft 385 kts 264°
2026-04-28 21:37 -44.06422 -91.79074 36284 ft 385 kts 264°
2026-04-28 21:37 -44.06628 -91.86526 36282 ft 385 kts 264°
2026-04-28 21:38 -44.06831 -91.94003 36280 ft 385 kts 265°
2026-04-28 21:38 -44.07027 -92.01425 36287 ft 386 kts 264°
2026-04-28 21:39 -44.07218 -92.08855 36281 ft 385 kts 264°
2026-04-28 21:39 -44.07404 -92.16292 36284 ft 384 kts 265°
2026-04-28 21:40 -44.07587 -92.23748 36278 ft 388 kts 265°
2026-04-28 21:40 -44.07764 -92.31213 36273 ft 385 kts 265°
2026-04-28 21:41 -44.07936 -92.38641 36273 ft 387 kts 265°
2026-04-28 21:41 -44.08105 -92.46156 36271 ft 388 kts 265°
2026-04-28 21:42 -44.08268 -92.53630 36274 ft 387 kts 265°
2026-04-28 21:42 -44.08427 -92.61122 36259 ft 387 kts 265°
2026-04-28 21:43 -44.08581 -92.68645 36294 ft 389 kts 266°
2026-04-28 21:43 -44.08731 -92.76144 36291 ft 390 kts 266°
2026-04-28 21:44 -44.08875 -92.83700 36282 ft 388 kts 265°
2026-04-28 21:44 -44.09015 -92.91223 36279 ft 392 kts 265°
2026-04-28 21:45 -44.09150 -92.98764 36289 ft 390 kts 266°
2026-04-28 21:45 -44.09280 -93.06325 36300 ft 391 kts 266°
2026-04-28 21:46 -44.09405 -93.13919 36300 ft 391 kts 265°
2026-04-28 21:46 -44.09526 -93.21459 36305 ft 391 kts 266°
2026-04-28 21:47 -44.09642 -93.29095 36304 ft 391 kts 266°
2026-04-28 21:47 -44.09752 -93.36639 36305 ft 388 kts 266°
2026-04-28 21:48 -44.09857 -93.44175 36302 ft 389 kts 266°
2026-04-28 21:48 -44.09958 -93.51751 36300 ft 390 kts 266°
2026-04-28 21:49 -44.10053 -93.59322 36307 ft 388 kts 266°
2026-04-28 21:49 -44.10142 -93.66828 36315 ft 389 kts 267°
2026-04-28 21:50 -44.10228 -93.74380 36320 ft 391 kts 267°
2026-04-28 21:50 -44.10308 -93.81947 36316 ft 389 kts 266°
2026-04-28 21:51 -44.10383 -93.89439 36303 ft 387 kts 267°
2026-04-28 21:51 -44.10453 -93.96932 36298 ft 389 kts 267°
2026-04-28 21:52 -44.10519 -94.04508 36297 ft 389 kts 267°
2026-04-28 21:52 -44.10579 -94.12069 36306 ft 391 kts 266°
2026-04-28 21:53 -44.10635 -94.19659 36304 ft 391 kts 266°
2026-04-28 21:53 -44.10685 -94.27251 36297 ft 390 kts 267°
2026-04-28 21:54 -44.10731 -94.34847 36299 ft 389 kts 267°
2026-04-28 21:54 -44.10772 -94.42400 36302 ft 391 kts 267°
2026-04-28 21:55 -44.10808 -94.50088 36302 ft 390 kts 268°
2026-04-28 21:55 -44.10838 -94.57792 36303 ft 391 kts 267°
2026-04-28 21:56 -44.10864 -94.65542 36306 ft 392 kts 268°
2026-04-28 21:56 -44.10885 -94.73065 36322 ft 392 kts 268°
2026-04-28 21:57 -44.10900 -94.80631 36321 ft 392 kts 268°
2026-04-28 21:57 -44.10910 -94.88224 36315 ft 392 kts 268°
2026-04-28 21:58 -44.10915 -94.95798 36309 ft 392 kts 268°
2026-04-28 21:58 -44.10916 -95.03402 36301 ft 391 kts 268°
2026-04-28 21:59 -44.10911 -95.11041 36307 ft 391 kts 268°
2026-04-28 22:00 -44.10894 -95.22504 36307 ft 393 kts 268°
2026-04-28 22:00 -44.10876 -95.30231 36304 ft 391 kts 268°
2026-04-28 22:01 -44.10854 -95.37927 36306 ft 393 kts 268°
2026-04-28 22:01 -44.10825 -95.45679 36309 ft 392 kts 269°
2026-04-28 22:02 -44.10792 -95.53376 36310 ft 392 kts 269°
2026-04-28 22:02 -44.10753 -95.61131 36312 ft 392 kts 268°
2026-04-28 22:03 -44.10710 -95.68789 36326 ft 392 kts 269°
2026-04-28 22:03 -44.10662 -95.76350 36324 ft 391 kts 269°
2026-04-28 22:04 -44.10609 -95.83903 36323 ft 393 kts 269°
2026-04-28 22:04 -44.10551 -95.91505 36325 ft 392 kts 269°
2026-04-28 22:05 -44.10488 -95.99065 36324 ft 391 kts 270°
2026-04-28 22:05 -44.10420 -96.06654 36315 ft 390 kts 269°
2026-04-28 22:06 -44.10347 -96.14272 36316 ft 391 kts 269°
2026-04-28 22:06 -44.10268 -96.21902 36311 ft 390 kts 269°
2026-04-28 22:07 -44.10184 -96.29562 36314 ft 392 kts 269°
2026-04-28 22:07 -44.10095 -96.37190 36314 ft 390 kts 269°
2026-04-28 22:08 -44.10003 -96.44740 36318 ft 391 kts 270°
2026-04-28 22:08 -44.09904 -96.52330 36308 ft 389 kts 269°
2026-04-28 22:09 -44.09800 -96.59952 36310 ft 391 kts 269°
2026-04-28 22:09 -44.09692 -96.67547 36328 ft 391 kts 270°
2026-04-28 22:10 -44.09578 -96.75147 36326 ft 390 kts 270°
2026-04-28 22:10 -44.09461 -96.82645 36328 ft 390 kts 270°
2026-04-28 22:11 -44.09338 -96.90220 36328 ft 391 kts 270°
2026-04-28 22:11 -44.09211 -96.97720 36324 ft 389 kts 270°
2026-04-28 22:12 -44.09076 -97.05366 36330 ft 391 kts 270°
2026-04-28 22:12 -44.08938 -97.12961 36337 ft 390 kts 270°
2026-04-28 22:13 -44.08794 -97.20540 36342 ft 390 kts 270°
2026-04-28 22:13 -44.08646 -97.28130 36343 ft 391 kts 270°
2026-04-28 22:14 -44.08490 -97.35819 36340 ft 392 kts 270°
2026-04-28 22:14 -44.08329 -97.43523 36333 ft 392 kts 270°
2026-04-28 22:15 -44.08160 -97.51356 36331 ft 392 kts 270°
2026-04-28 22:15 -44.07988 -97.59081 36332 ft 393 kts 271°
2026-04-28 22:16 -44.07809 -97.66880 36350 ft 391 kts 271°
2026-04-28 22:16 -44.07630 -97.74455 36355 ft 395 kts 271°
2026-04-28 22:17 -44.07444 -97.82095 36348 ft 393 kts 271°
2026-04-28 22:17 -44.07254 -97.89709 36342 ft 394 kts 271°
2026-04-28 22:18 -44.07061 -97.97263 36340 ft 392 kts 271°
2026-04-28 22:18 -44.06859 -98.04929 36345 ft 395 kts 271°
2026-04-28 22:19 -44.06647 -98.12795 36339 ft 393 kts 271°
2026-04-28 22:19 -44.06437 -98.20401 36340 ft 394 kts 271°
2026-04-28 22:20 -44.06218 -98.28139 36338 ft 394 kts 271°
2026-04-28 22:20 -44.05991 -98.35950 36338 ft 396 kts 271°
2026-04-28 22:21 -44.05760 -98.43749 36331 ft 393 kts 271°
2026-04-28 22:21 -44.05526 -98.51472 36328 ft 394 kts 271°
2026-04-28 22:22 -44.05282 -98.59312 36331 ft 395 kts 271°
2026-04-28 22:22 -44.05037 -98.67044 36357 ft 395 kts 272°
2026-04-28 22:23 -44.04789 -98.74705 36347 ft 396 kts 272°
2026-04-28 22:23 -44.04538 -98.82295 36343 ft 394 kts 271°
2026-04-28 22:24 -44.04279 -98.89964 36348 ft 397 kts 272°
2026-04-28 22:24 -44.04017 -98.97591 36340 ft 394 kts 272°
2026-04-28 22:25 -44.03750 -99.05190 36339 ft 395 kts 272°
2026-04-28 22:25 -44.03475 -99.12883 36343 ft 395 kts 272°
2026-04-28 22:26 -44.03191 -99.20684 36350 ft 397 kts 272°
2026-04-28 22:26 -44.02903 -99.28469 36347 ft 396 kts 272°
2026-04-28 22:27 -44.02610 -99.36200 36350 ft 396 kts 272°
2026-04-28 22:27 -44.02313 -99.43938 36359 ft 397 kts 272°
2026-04-28 22:28 -44.02008 -99.51726 36355 ft 396 kts 272°
2026-04-28 22:28 -44.01702 -99.59417 36355 ft 396 kts 272°
2026-04-28 22:29 -44.01388 -99.67165 36371 ft 397 kts 273°
2026-04-28 22:29 -44.01072 -99.74831 36366 ft 396 kts 273°
2026-04-28 22:30 -44.00754 -99.82443 36372 ft 394 kts 273°
2026-04-28 22:30 -44.00430 -99.90057 36363 ft 395 kts 274°
2026-04-28 22:31 -44.00101 -99.97681 36359 ft 395 kts 273°
2026-04-28 22:31 -44.00430 -100.05273 36365 ft 397 kts 260°
2026-04-28 22:32 -44.01673 -100.12743 36361 ft 399 kts 260°
2026-04-28 22:32 -44.02858 -100.20301 36362 ft 397 kts 261°
2026-04-28 22:33 -44.03988 -100.27850 36358 ft 398 kts 261°
2026-04-28 22:33 -44.05090 -100.35412 36354 ft 396 kts 261°
2026-04-28 22:34 -44.06186 -100.43045 36351 ft 396 kts 261°
2026-04-28 22:34 -44.07274 -100.50700 36356 ft 399 kts 261°
2026-04-28 22:35 -44.08356 -100.58357 36352 ft 397 kts 261°
2026-04-28 22:35 -44.09427 -100.65997 36360 ft 397 kts 261°
2026-04-28 22:36 -44.10473 -100.73499 36369 ft 396 kts 262°
2026-04-28 22:36 -44.11523 -100.81067 36360 ft 396 kts 262°
2026-04-28 22:37 -44.12558 -100.88566 36360 ft 396 kts 262°
2026-04-28 22:37 -44.13593 -100.96107 36363 ft 396 kts 262°
2026-04-28 22:38 -44.14623 -101.03645 36361 ft 394 kts 261°
2026-04-28 22:38 -44.15647 -101.11181 36357 ft 393 kts 262°
2026-04-28 22:39 -44.16677 -101.18802 36354 ft 395 kts 262°
2026-04-28 22:39 -44.17688 -101.26325 36359 ft 395 kts 262°
2026-04-28 22:40 -44.18695 -101.33852 36366 ft 394 kts 262°
2026-04-28 22:40 -44.19690 -101.41331 36369 ft 394 kts 262°
2026-04-28 22:41 -44.20706 -101.49004 36368 ft 394 kts 262°
2026-04-28 22:41 -44.21700 -101.56555 36367 ft 392 kts 262°
2026-04-28 22:42 -44.22682 -101.64062 36360 ft 395 kts 262°
2026-04-28 22:42 -44.23660 -101.71564 36382 ft 392 kts 263°
2026-04-28 22:43 -44.24632 -101.79073 36382 ft 394 kts 262°
2026-04-28 22:43 -44.25593 -101.86526 36372 ft 391 kts 263°
2026-04-28 22:44 -44.26555 -101.94034 36382 ft 394 kts 263°
2026-04-28 22:44 -44.27509 -102.01521 36367 ft 390 kts 262°
2026-04-28 22:45 -44.28463 -102.09050 36354 ft 392 kts 263°
2026-04-28 22:45 -44.29403 -102.16504 36353 ft 390 kts 263°
2026-04-28 22:46 -44.30335 -102.23942 36355 ft 392 kts 262°
2026-04-28 22:46 -44.31273 -102.31455 36348 ft 391 kts 263°
2026-04-28 22:47 -44.32197 -102.38914 36348 ft 391 kts 263°
2026-04-28 22:47 -44.33121 -102.46404 36350 ft 392 kts 263°
2026-04-28 22:48 -44.34036 -102.53871 36350 ft 390 kts 263°
2026-04-28 22:48 -44.34951 -102.61380 36348 ft 392 kts 263°
2026-04-28 22:49 -44.35864 -102.68906 36369 ft 392 kts 264°
2026-04-28 22:49 -44.36771 -102.76431 36367 ft 393 kts 264°
2026-04-28 22:50 -44.37668 -102.83913 36367 ft 389 kts 264°
2026-04-28 22:50 -44.38560 -102.91409 36368 ft 392 kts 263°
2026-04-28 22:51 -44.39449 -102.98908 36356 ft 391 kts 264°
2026-04-28 22:51 -44.40335 -103.06428 36358 ft 390 kts 264°
2026-04-28 22:52 -44.41207 -103.13878 36359 ft 390 kts 264°
2026-04-28 22:52 -44.42079 -103.21365 36350 ft 388 kts 264°
2026-04-28 22:53 -44.42944 -103.28847 36355 ft 391 kts 264°
2026-04-28 22:53 -44.43807 -103.36348 36349 ft 388 kts 264°
2026-04-28 22:54 -44.44653 -103.43751 36352 ft 389 kts 264°
2026-04-28 22:54 -44.45504 -103.51234 36353 ft 389 kts 264°
2026-04-28 22:55 -44.46344 -103.58674 36347 ft 386 kts 264°
2026-04-28 22:55 -44.47185 -103.66170 36361 ft 389 kts 264°
2026-04-28 22:56 -44.48021 -103.73652 36374 ft 389 kts 264°
2026-04-28 22:56 -44.48846 -103.81097 36365 ft 390 kts 265°
2026-04-28 22:57 -44.49677 -103.88627 36366 ft 389 kts 265°
2026-04-28 22:57 -44.50497 -103.96121 36376 ft 388 kts 265°
2026-04-28 22:58 -44.51315 -104.03628 36374 ft 387 kts 264°
2026-04-28 22:58 -44.52130 -104.11164 36371 ft 388 kts 265°
2026-04-28 22:59 -44.52940 -104.18699 36357 ft 389 kts 264°
2026-04-28 22:59 -44.53744 -104.26228 36365 ft 387 kts 265°
2026-04-28 23:00 -44.54553 -104.33858 36353 ft 388 kts 265°
2026-04-28 23:00 -44.55345 -104.41365 36352 ft 389 kts 265°
2026-04-28 23:01 -44.56134 -104.48893 36349 ft 386 kts 265°
2026-04-28 23:01 -44.56914 -104.56398 36351 ft 387 kts 265°
2026-04-28 23:02 -44.57693 -104.63934 36343 ft 388 kts 265°
2026-04-28 23:02 -44.58457 -104.71376 36362 ft 388 kts 265°
2026-04-28 23:03 -44.59222 -104.78875 36370 ft 387 kts 266°
2026-04-28 23:03 -44.59981 -104.86371 36367 ft 387 kts 266°
2026-04-28 23:04 -44.60729 -104.93791 36369 ft 388 kts 266°
2026-04-28 23:04 -44.61855 -105.05075 36365 ft 387 kts 266°
2026-04-28 23:05 -44.62597 -105.12582 36362 ft 389 kts 266°
2026-04-28 23:05 -44.63332 -105.20050 36360 ft 388 kts 266°
2026-04-28 23:06 -44.64064 -105.27551 36362 ft 386 kts 266°
2026-04-28 23:06 -44.64784 -105.34981 36367 ft 387 kts 266°
2026-04-28 23:07 -44.65507 -105.42503 36356 ft 387 kts 266°
2026-04-28 23:07 -44.66217 -105.49928 36361 ft 386 kts 266°
2026-04-28 23:08 -44.66928 -105.57421 36362 ft 385 kts 266°
2026-04-28 23:08 -44.67630 -105.64871 36354 ft 385 kts 266°
2026-04-28 23:09 -44.68327 -105.72327 36374 ft 386 kts 267°
2026-04-28 23:09 -44.69020 -105.79784 36384 ft 383 kts 267°
2026-04-28 23:10 -44.69705 -105.87219 36382 ft 386 kts 267°
2026-04-28 23:10 -44.70387 -105.94668 36374 ft 385 kts 267°
2026-04-28 23:11 -44.71066 -106.02138 36371 ft 384 kts 267°
2026-04-28 23:11 -44.71736 -106.09571 36369 ft 386 kts 267°
2026-04-28 23:12 -44.72408 -106.17081 36366 ft 386 kts 266°
2026-04-28 23:12 -44.73077 -106.24605 36364 ft 386 kts 268°
2026-04-28 23:13 -44.73737 -106.32095 36365 ft 385 kts 267°
2026-04-28 23:13 -44.74390 -106.39565 36357 ft 384 kts 267°
2026-04-28 23:14 -44.75040 -106.47051 36357 ft 386 kts 267°
2026-04-28 23:14 -44.75683 -106.54517 36356 ft 387 kts 266°
2026-04-28 23:15 -44.76328 -106.62056 36352 ft 384 kts 267°
2026-04-28 23:15 -44.76960 -106.69518 36372 ft 385 kts 268°
2026-04-28 23:16 -44.77592 -106.77023 36375 ft 384 kts 268°
2026-04-28 23:16 -44.78214 -106.84490 36371 ft 388 kts 268°
2026-04-28 23:17 -44.78837 -106.92004 36370 ft 385 kts 268°
2026-04-28 23:17 -44.79453 -106.99515 36367 ft 386 kts 267°
2026-04-28 23:18 -44.80063 -107.07007 36366 ft 387 kts 268°
2026-04-28 23:18 -44.80668 -107.14494 36364 ft 386 kts 267°
2026-04-28 23:19 -44.81272 -107.22028 36362 ft 385 kts 268°
2026-04-28 23:19 -44.81870 -107.29565 36363 ft 386 kts 267°
2026-04-28 23:20 -44.82457 -107.37016 36366 ft 385 kts 268°
2026-04-28 23:20 -44.83044 -107.44537 36366 ft 386 kts 268°
2026-04-28 23:21 -44.83624 -107.52027 36371 ft 386 kts 268°
2026-04-28 23:21 -44.84201 -107.59548 36374 ft 386 kts 268°
2026-04-28 23:22 -44.84775 -107.67098 36394 ft 386 kts 269°
2026-04-28 23:22 -44.85342 -107.74612 36390 ft 386 kts 268°
2026-04-28 23:23 -44.85902 -107.82112 36393 ft 387 kts 268°
2026-04-28 23:23 -44.86464 -107.89708 36389 ft 388 kts 268°
2026-04-28 23:24 -44.87016 -107.97214 36386 ft 385 kts 269°
2026-04-28 23:24 -44.87566 -108.04800 36388 ft 388 kts 268°
2026-04-28 23:25 -44.88115 -108.12412 36383 ft 387 kts 268°
2026-04-28 23:25 -44.88659 -108.20050 36371 ft 389 kts 268°
2026-04-28 23:26 -44.89203 -108.27740 36362 ft 386 kts 268°
2026-04-28 23:26 -44.89738 -108.35394 36364 ft 390 kts 268°
2026-04-28 23:27 -44.90275 -108.43134 36361 ft 390 kts 268°
2026-04-28 23:27 -44.90805 -108.50853 36356 ft 389 kts 268°
2026-04-28 23:28 -44.91336 -108.58679 36357 ft 390 kts 268°
2026-04-28 23:28 -44.91856 -108.66408 36364 ft 388 kts 269°
2026-04-28 23:29 -44.92364 -108.74045 36375 ft 390 kts 269°
2026-04-28 23:29 -44.92863 -108.81618 36378 ft 390 kts 269°
2026-04-28 23:30 -44.93357 -108.89207 36370 ft 389 kts 268°
2026-04-28 23:30 -44.93851 -108.96854 36368 ft 391 kts 269°
2026-04-28 23:31 -44.94347 -109.04627 36366 ft 391 kts 269°
2026-04-28 23:31 -44.94838 -109.12389 36370 ft 391 kts 268°
2026-04-28 23:32 -44.95328 -109.20254 36363 ft 394 kts 268°
2026-04-28 23:32 -44.95815 -109.28137 36366 ft 394 kts 268°
2026-04-28 23:33 -44.96304 -109.36144 36087 ft 395 kts 268°
2026-04-28 23:33 -44.96537 -109.39990 36336 ft 394 kts 269°
2026-04-28 23:33 -44.96773 -109.43915 36359 ft 397 kts 269°
2026-04-28 23:34 -44.97237 -109.51701 36359 ft 397 kts 268°
2026-04-28 23:34 -44.97704 -109.59612 36358 ft 397 kts 268°
2026-04-28 23:35 -44.98171 -109.67632 36364 ft 399 kts 268°
2026-04-28 23:35 -44.98620 -109.75424 36375 ft 399 kts 269°
2026-04-28 23:36 -44.99064 -109.83237 36367 ft 401 kts 269°
2026-04-28 23:36 -44.99507 -109.91106 36369 ft 399 kts 268°
2026-04-28 23:37 -44.99933 -109.98875 36367 ft 400 kts 269°
2026-04-28 23:37 -45.00290 -110.06885 36370 ft 402 kts 269°
2026-04-28 23:38 -45.00640 -110.14957 36370 ft 401 kts 269°
2026-04-28 23:38 -45.00984 -110.23083 36357 ft 401 kts 269°
2026-04-28 23:39 -45.01325 -110.31307 36369 ft 403 kts 269°
2026-04-28 23:39 -45.01653 -110.39360 36379 ft 403 kts 269°
2026-04-28 23:40 -45.01981 -110.47566 36363 ft 405 kts 269°
2026-04-28 23:40 -45.02301 -110.55720 36379 ft 405 kts 269°
2026-04-28 23:41 -45.02616 -110.63916 36369 ft 405 kts 268°
2026-04-28 23:41 -45.02918 -110.71892 36383 ft 405 kts 269°
2026-04-28 23:42 -45.03213 -110.79875 36373 ft 407 kts 269°
2026-04-28 23:42 -45.03503 -110.87838 36359 ft 407 kts 269°
2026-04-28 23:43 -45.03790 -110.95878 36358 ft 408 kts 269°
2026-04-28 23:43 -45.04074 -111.03996 36359 ft 408 kts 269°
2026-04-28 23:44 -45.04362 -111.12421 36360 ft 409 kts 269°
2026-04-28 23:44 -45.04640 -111.20698 36355 ft 409 kts 269°
2026-04-28 23:45 -45.04908 -111.28876 36361 ft 408 kts 269°
2026-04-28 23:45 -45.05174 -111.37165 36359 ft 410 kts 269°
2026-04-28 23:46 -45.05434 -111.45477 36358 ft 408 kts 269°
2026-04-28 23:46 -45.05687 -111.53735 36359 ft 409 kts 269°
2026-04-28 23:47 -45.05934 -111.61973 36353 ft 408 kts 269°
2026-04-28 23:47 -45.06170 -111.70058 36367 ft 409 kts 270°
2026-04-28 23:48 -45.06398 -111.78078 36368 ft 408 kts 270°
2026-04-28 23:48 -45.06620 -111.86076 36369 ft 409 kts 269°
2026-04-28 23:49 -45.06837 -111.94081 36366 ft 409 kts 270°
2026-04-28 23:49 -45.07051 -112.02204 36369 ft 408 kts 269°
2026-04-28 23:50 -45.07264 -112.10506 36363 ft 408 kts 269°
2026-04-28 23:50 -45.07468 -112.18695 36361 ft 409 kts 270°
2026-04-28 23:51 -45.07669 -112.27023 36366 ft 409 kts 270°
2026-04-28 23:51 -45.07867 -112.35445 36359 ft 410 kts 269°
2026-04-28 23:52 -45.08056 -112.43741 36359 ft 411 kts 269°
2026-04-28 23:52 -45.08240 -112.52114 36361 ft 410 kts 270°
2026-04-28 23:53 -45.08418 -112.60487 36350 ft 412 kts 270°
2026-04-28 23:53 -45.08588 -112.68742 36371 ft 410 kts 270°
2026-04-28 23:54 -45.08748 -112.76808 36371 ft 412 kts 270°
2026-04-28 23:54 -45.08905 -112.84990 36362 ft 412 kts 271°
2026-04-28 23:55 -45.09053 -112.93082 36360 ft 411 kts 270°
2026-04-28 23:55 -45.09197 -113.01191 36372 ft 415 kts 271°
2026-04-28 23:56 -45.09337 -113.09403 36362 ft 413 kts 270°
2026-04-28 23:56 -45.09475 -113.17881 36362 ft 413 kts 270°
2026-04-28 23:57 -45.09607 -113.26383 36358 ft 415 kts 271°
2026-04-28 23:57 -45.09732 -113.34869 36358 ft 415 kts 271°
2026-04-28 23:58 -45.09849 -113.43185 36357 ft 414 kts 271°
2026-04-28 23:58 -45.09962 -113.51693 36362 ft 416 kts 271°
2026-04-28 23:59 -45.10066 -113.59899 36362 ft 414 kts 270°
2026-04-28 23:59 -45.10162 -113.68068 36385 ft 416 kts 271°
2026-04-29 00:00 -45.10254 -113.76222 36381 ft 415 kts 271°
2026-04-29 00:00 -45.10339 -113.84378 36369 ft 416 kts 271°
2026-04-29 00:01 -45.10418 -113.92543 36366 ft 416 kts 271°
2026-04-29 00:01 -45.10492 -114.00670 36353 ft 416 kts 271°
2026-04-29 00:02 -45.10562 -114.09152 36365 ft 415 kts 271°
2026-04-29 00:02 -45.10627 -114.17696 36368 ft 415 kts 271°
2026-04-29 00:03 -45.10684 -114.26138 36375 ft 414 kts 271°
2026-04-29 00:03 -45.10735 -114.34557 36368 ft 414 kts 271°
2026-04-29 00:04 -45.10781 -114.43046 36364 ft 413 kts 271°
2026-04-29 00:04 -45.10819 -114.51498 36364 ft 414 kts 271°
2026-04-29 00:05 -45.10852 -114.59854 36355 ft 414 kts 271°
2026-04-29 00:05 -45.10878 -114.68225 36375 ft 413 kts 271°
2026-04-29 00:06 -45.10897 -114.76311 36370 ft 414 kts 272°
2026-04-29 00:06 -45.10912 -114.84488 36363 ft 414 kts 271°
2026-04-29 00:07 -45.10920 -114.92622 36362 ft 414 kts 271°
2026-04-29 00:07 -45.10922 -115.00778 36355 ft 414 kts 271°
2026-04-29 00:08 -45.10918 -115.09025 36362 ft 413 kts 271°
2026-04-29 00:08 -45.10909 -115.17355 36351 ft 413 kts 271°
2026-04-29 00:09 -45.10893 -115.25668 36359 ft 413 kts 271°
2026-04-29 00:09 -45.10871 -115.34050 36353 ft 413 kts 271°
2026-04-29 00:10 -45.10844 -115.42403 36346 ft 414 kts 271°
2026-04-29 00:10 -45.10810 -115.50721 36347 ft 413 kts 271°
2026-04-29 00:11 -45.10770 -115.58971 36353 ft 412 kts 271°
2026-04-29 00:12 -45.10700 -115.71347 36363 ft 412 kts 271°
2026-04-29 00:12 -45.10647 -115.79423 36366 ft 412 kts 271°
2026-04-29 00:13 -45.10587 -115.87565 36356 ft 413 kts 271°
2026-04-29 00:13 -45.10522 -115.95688 36358 ft 412 kts 271°
2026-04-29 00:14 -45.10452 -116.03780 36357 ft 413 kts 271°
2026-04-29 00:14 -45.10375 -116.11970 36356 ft 413 kts 271°
2026-04-29 00:15 -45.10289 -116.20483 36361 ft 412 kts 271°
2026-04-29 00:15 -45.10197 -116.28906 36355 ft 413 kts 271°
2026-04-29 00:16 -45.10100 -116.37229 36354 ft 412 kts 271°
2026-04-29 00:16 -45.09998 -116.45562 36354 ft 412 kts 271°
2026-04-29 00:17 -45.09888 -116.53957 36353 ft 412 kts 271°
2026-04-29 00:17 -45.09771 -116.62376 36343 ft 413 kts 271°
2026-04-29 00:18 -45.09654 -116.70495 36356 ft 413 kts 271°
2026-04-29 00:18 -45.09530 -116.78613 36353 ft 412 kts 271°
2026-04-29 00:19 -45.09401 -116.86710 36343 ft 412 kts 271°
2026-04-29 00:19 -45.09266 -116.94803 36345 ft 412 kts 271°
2026-04-29 00:20 -45.09124 -117.02952 36345 ft 411 kts 271°
2026-04-29 00:20 -45.08976 -117.11176 36350 ft 411 kts 271°
2026-04-29 00:21 -45.08821 -117.19430 36356 ft 411 kts 271°
2026-04-29 00:21 -45.08659 -117.27721 36352 ft 411 kts 271°
2026-04-29 00:22 -45.08490 -117.36073 36351 ft 411 kts 271°
2026-04-29 00:22 -45.08313 -117.44500 36351 ft 411 kts 271°
2026-04-29 00:23 -45.08130 -117.52924 36353 ft 410 kts 271°
2026-04-29 00:23 -45.07945 -117.61147 36345 ft 410 kts 271°
2026-04-29 00:24 -45.07755 -117.69370 36374 ft 409 kts 271°
2026-04-29 00:24 -45.07564 -117.77367 36361 ft 408 kts 271°
2026-04-29 00:25 -45.07367 -117.85368 36360 ft 408 kts 271°
2026-04-29 00:25 -45.07164 -117.93414 36365 ft 407 kts 271°
2026-04-29 00:26 -45.06956 -118.01394 36360 ft 408 kts 271°
2026-04-29 00:26 -45.06736 -118.09674 36360 ft 407 kts 271°
2026-04-29 00:27 -45.06508 -118.17995 36364 ft 407 kts 271°
2026-04-29 00:27 -45.06278 -118.26151 36364 ft 409 kts 271°
2026-04-29 00:28 -45.06036 -118.34534 36356 ft 407 kts 271°
2026-04-29 00:28 -45.05794 -118.42729 36364 ft 407 kts 271°
2026-04-29 00:29 -45.05545 -118.50932 36355 ft 408 kts 271°
2026-04-29 00:29 -45.05290 -118.59161 36354 ft 406 kts 271°
2026-04-29 00:30 -45.05029 -118.67366 36373 ft 406 kts 272°
2026-04-29 00:30 -45.04770 -118.75357 36368 ft 405 kts 272°
2026-04-29 00:31 -45.04505 -118.83364 36370 ft 406 kts 272°
2026-04-29 00:31 -45.04234 -118.91344 36364 ft 405 kts 271°
2026-04-29 00:32 -45.03960 -118.99281 36367 ft 406 kts 272°
2026-04-29 00:32 -45.03673 -119.07420 36362 ft 406 kts 271°
2026-04-29 00:33 -45.03383 -119.15499 36355 ft 407 kts 271°
2026-04-29 00:33 -45.03088 -119.23543 36356 ft 404 kts 271°
2026-04-29 00:34 -45.02781 -119.31744 36343 ft 405 kts 271°
2026-04-29 00:34 -45.02473 -119.39818 36337 ft 404 kts 271°
2026-04-29 00:35 -45.02156 -119.47987 36331 ft 405 kts 272°
2026-04-29 00:35 -45.01833 -119.56172 36334 ft 406 kts 271°
2026-04-29 00:36 -45.01503 -119.64374 36330 ft 406 kts 272°
2026-04-29 00:36 -45.01177 -119.72314 36349 ft 405 kts 272°
2026-04-29 00:37 -45.00847 -119.80256 36346 ft 404 kts 272°
2026-04-29 00:37 -45.00514 -119.88120 36344 ft 405 kts 272°
2026-04-29 00:38 -45.00170 -119.96096 36351 ft 404 kts 272°
2026-04-29 00:38 -44.99962 -120.04023 36341 ft 404 kts 268°
2026-04-29 00:39 -45.00190 -120.11948 36334 ft 405 kts 268°
2026-04-29 00:39 -45.00386 -120.19902 36339 ft 404 kts 268°
2026-04-29 00:40 -45.00561 -120.27927 36334 ft 405 kts 268°
2026-04-29 00:40 -45.00723 -120.36040 36332 ft 405 kts 268°
2026-04-29 00:41 -45.00878 -120.44282 36321 ft 405 kts 268°
2026-04-29 00:41 -45.01025 -120.52533 36323 ft 406 kts 268°
2026-04-29 00:42 -45.01164 -120.60719 36317 ft 406 kts 269°
2026-04-29 00:42 -45.01295 -120.68800 36338 ft 407 kts 269°
2026-04-29 00:43 -45.01418 -120.76760 36332 ft 406 kts 269°
2026-04-29 00:43 -45.01536 -120.84721 36329 ft 406 kts 269°
2026-04-29 00:44 -45.01648 -120.92719 36340 ft 407 kts 269°
2026-04-29 00:44 -45.01755 -121.00697 36345 ft 407 kts 269°
2026-04-29 00:45 -45.01859 -121.08881 36339 ft 408 kts 269°
2026-04-29 00:45 -45.01957 -121.17095 36336 ft 407 kts 269°
2026-04-29 00:46 -45.02049 -121.25225 36335 ft 407 kts 269°
2026-04-29 00:46 -45.02135 -121.33413 36343 ft 408 kts 269°
2026-04-29 00:47 -45.02214 -121.41537 36332 ft 408 kts 269°
2026-04-29 00:47 -45.02289 -121.49721 36330 ft 410 kts 269°
2026-04-29 00:48 -45.02358 -121.57970 36333 ft 409 kts 270°
2026-04-29 00:48 -45.02421 -121.66192 36334 ft 409 kts 270°
2026-04-29 00:49 -45.02477 -121.74248 36342 ft 409 kts 270°
2026-04-29 00:49 -45.02528 -121.82275 36343 ft 410 kts 270°
2026-04-29 00:50 -45.02572 -121.90277 36343 ft 409 kts 270°
2026-04-29 00:50 -45.02611 -121.98284 36349 ft 410 kts 270°
2026-04-29 00:51 -45.02645 -122.06415 36334 ft 410 kts 270°
2026-04-29 00:51 -45.02673 -122.14548 36336 ft 409 kts 270°
2026-04-29 00:52 -45.02696 -122.22729 36335 ft 409 kts 270°
2026-04-29 00:52 -45.02712 -122.30830 36325 ft 408 kts 270°
2026-04-29 00:53 -45.02723 -122.38886 36323 ft 409 kts 270°
2026-04-29 00:53 -45.02728 -122.47070 36318 ft 409 kts 270°
2026-04-29 00:54 -45.02727 -122.55302 36308 ft 409 kts 270°
2026-04-29 00:54 -45.02720 -122.63453 36310 ft 408 kts 270°
2026-04-29 00:55 -45.02708 -122.71478 36328 ft 408 kts 271°
2026-04-29 00:55 -45.02690 -122.79497 36330 ft 408 kts 271°
2026-04-29 00:56 -45.02667 -122.87514 36323 ft 408 kts 271°
2026-04-29 00:56 -45.02638 -122.95501 36313 ft 408 kts 271°
2026-04-29 00:57 -45.02602 -123.03576 36319 ft 410 kts 271°
2026-04-29 00:57 -45.02561 -123.11824 36313 ft 408 kts 271°
2026-04-29 00:58 -45.02514 -123.20041 36316 ft 410 kts 271°
2026-04-29 00:58 -45.02461 -123.28249 36317 ft 409 kts 271°
2026-04-29 00:59 -45.02402 -123.36437 36317 ft 409 kts 271°
2026-04-29 00:59 -45.02335 -123.44824 36319 ft 409 kts 271°
2026-04-29 01:00 -45.02265 -123.53002 36307 ft 409 kts 271°
2026-04-29 01:00 -45.02188 -123.61270 36322 ft 409 kts 271°
2026-04-29 01:01 -45.02105 -123.69462 36322 ft 409 kts 272°
2026-04-29 01:01 -45.02019 -123.77453 36325 ft 408 kts 272°
2026-04-29 01:02 -45.01927 -123.85462 36319 ft 409 kts 272°
2026-04-29 01:02 -45.01829 -123.93503 36325 ft 408 kts 272°
2026-04-29 01:03 -45.01727 -124.01466 36315 ft 407 kts 272°
2026-04-29 01:03 -45.01615 -124.09689 36318 ft 407 kts 272°
2026-04-29 01:04 -45.01498 -124.17861 36308 ft 409 kts 272°
2026-04-29 01:04 -45.01374 -124.26166 36305 ft 408 kts 272°
2026-04-29 01:05 -45.01242 -124.34539 36306 ft 409 kts 272°
2026-04-29 01:05 -45.01104 -124.42882 36302 ft 409 kts 272°
2026-04-29 01:06 -45.00962 -124.51113 36302 ft 409 kts 272°
2026-04-29 01:06 -45.00812 -124.59500 36296 ft 409 kts 272°
2026-04-29 01:07 -45.00660 -124.67687 36315 ft 408 kts 274°
2026-04-29 01:07 -45.00504 -124.75738 36305 ft 408 kts 273°
2026-04-29 01:08 -45.00344 -124.83705 36306 ft 408 kts 273°
2026-04-29 01:08 -45.00178 -124.91705 36303 ft 410 kts 273°
2026-04-29 01:09 -44.99823 -124.99717 36299 ft 407 kts 280°
2026-04-29 01:09 -44.98597 -125.07477 36299 ft 406 kts 283°
2026-04-29 01:10 -44.97276 -125.15239 36301 ft 407 kts 284°
2026-04-29 01:10 -44.95921 -125.23032 36295 ft 407 kts 283°
2026-04-29 01:11 -44.94514 -125.31018 36294 ft 405 kts 284°
2026-04-29 01:11 -44.93117 -125.38879 36298 ft 407 kts 284°
2026-04-29 01:12 -44.91694 -125.46835 36294 ft 406 kts 284°
2026-04-29 01:12 -44.90272 -125.54738 36296 ft 408 kts 284°
2026-04-29 01:13 -44.88869 -125.62506 36298 ft 407 kts 284°
2026-04-29 01:13 -44.87472 -125.70200 36310 ft 406 kts 285°
2026-04-29 01:14 -44.86069 -125.77898 36314 ft 406 kts 285°
2026-04-29 01:14 -44.84652 -125.85641 36315 ft 408 kts 284°
2026-04-29 01:15 -44.83240 -125.93322 36311 ft 406 kts 285°
2026-04-29 01:15 -44.81817 -126.01033 36309 ft 407 kts 285°
2026-04-29 01:16 -44.80377 -126.08798 36308 ft 408 kts 285°
2026-04-29 01:16 -44.78921 -126.16618 36302 ft 407 kts 285°
2026-04-29 01:17 -44.77465 -126.24414 36292 ft 408 kts 285°
2026-04-29 01:17 -44.76004 -126.32200 36290 ft 408 kts 285°
2026-04-29 01:18 -44.74525 -126.40048 36285 ft 407 kts 285°
2026-04-29 01:18 -44.72320 -126.51685 36281 ft 407 kts 285°
2026-04-29 01:19 -44.70843 -126.59444 36278 ft 408 kts 285°
2026-04-29 01:19 -44.69368 -126.67161 36303 ft 407 kts 286°
2026-04-29 01:20 -44.67884 -126.74891 36295 ft 409 kts 286°
2026-04-29 01:20 -44.66411 -126.82535 36300 ft 408 kts 286°
2026-04-29 01:21 -44.64914 -126.90272 36295 ft 408 kts 286°
2026-04-29 01:21 -44.63423 -126.97950 36299 ft 409 kts 286°
2026-04-29 01:22 -44.61912 -127.05700 36294 ft 408 kts 287°
2026-04-29 01:22 -44.60386 -127.13489 36295 ft 408 kts 286°
2026-04-29 01:23 -44.58856 -127.21275 36293 ft 409 kts 286°
2026-04-29 01:23 -44.57296 -127.29177 36293 ft 409 kts 286°
2026-04-29 01:24 -44.55727 -127.37097 36287 ft 408 kts 286°
2026-04-29 01:24 -44.54143 -127.45058 36286 ft 409 kts 286°
2026-04-29 01:25 -44.52596 -127.52805 36286 ft 409 kts 286°
2026-04-29 01:25 -44.51017 -127.60675 36283 ft 409 kts 287°
2026-04-29 01:26 -44.49450 -127.68456 36295 ft 407 kts 287°
2026-04-29 01:26 -44.47903 -127.76113 36293 ft 408 kts 287°
2026-04-29 01:27 -44.46352 -127.83757 36287 ft 409 kts 287°
2026-04-29 01:27 -44.44801 -127.91374 36290 ft 408 kts 288°
2026-04-29 01:28 -44.43238 -127.99013 36282 ft 409 kts 288°
2026-04-29 01:28 -44.41664 -128.06686 36280 ft 407 kts 287°
2026-04-29 01:29 -44.40080 -128.14377 36278 ft 409 kts 288°
2026-04-29 01:29 -44.38480 -128.22113 36274 ft 409 kts 288°
2026-04-29 01:30 -44.36878 -128.29833 36275 ft 408 kts 288°
2026-04-29 01:30 -44.35269 -128.37553 36271 ft 409 kts 288°
2026-04-29 01:31 -44.33624 -128.45418 36270 ft 408 kts 288°
2026-04-29 01:31 -44.32004 -128.53134 36273 ft 408 kts 288°
2026-04-29 01:32 -44.30345 -128.61006 36268 ft 409 kts 288°
2026-04-29 01:32 -44.28743 -128.68576 36280 ft 409 kts 288°
2026-04-29 01:33 -44.27123 -128.76207 36284 ft 410 kts 288°
2026-04-29 01:33 -44.25502 -128.83813 36274 ft 410 kts 288°
2026-04-29 01:34 -44.23875 -128.91422 36275 ft 410 kts 288°
2026-04-29 01:34 -44.22249 -128.98996 36282 ft 409 kts 288°
2026-04-29 01:35 -44.20588 -129.06703 36286 ft 410 kts 289°
2026-04-29 01:35 -44.18916 -129.14438 36281 ft 410 kts 289°
2026-04-29 01:36 -44.17232 -129.22195 36274 ft 409 kts 289°
2026-04-29 01:36 -44.15554 -129.29895 36271 ft 410 kts 289°
2026-04-29 01:37 -44.13854 -129.37674 36270 ft 410 kts 289°
2026-04-29 01:37 -44.12168 -129.45358 36262 ft 409 kts 289°
2026-04-29 01:38 -44.10470 -129.53065 36256 ft 409 kts 289°
2026-04-29 01:38 -44.08740 -129.60892 36249 ft 409 kts 289°
2026-04-29 01:39 -44.07043 -129.68544 36265 ft 408 kts 289°
2026-04-29 01:39 -44.05357 -129.76117 36259 ft 408 kts 289°
2026-04-29 01:40 -44.03674 -129.83647 36259 ft 409 kts 289°
2026-04-29 01:40 -44.01985 -129.91177 36263 ft 408 kts 290°
2026-04-29 01:41 -44.00364 -129.98721 36252 ft 409 kts 285°
2026-04-29 01:41 -43.99796 -130.06645 36242 ft 420 kts 274°
2026-04-29 01:42 -43.99932 -130.14746 36245 ft 419 kts 274°
2026-04-29 01:42 -44.00016 -130.22815 36252 ft 419 kts 275°
2026-04-29 01:43 -44.00063 -130.30960 36254 ft 419 kts 274°
2026-04-29 01:43 -44.00089 -130.39220 36251 ft 419 kts 274°
2026-04-29 01:44 -44.00101 -130.47403 36247 ft 420 kts 275°
2026-04-29 01:44 -44.00104 -130.55742 36235 ft 420 kts 275°
2026-04-29 01:45 -44.00098 -130.64035 36228 ft 420 kts 275°
2026-04-29 01:45 -44.00087 -130.72194 36244 ft 420 kts 275°
2026-04-29 01:46 -44.00068 -130.80312 36241 ft 421 kts 276°
2026-04-29 01:46 -44.00045 -130.88406 36246 ft 420 kts 276°
2026-04-29 01:47 -43.99795 -130.96466 36232 ft 415 kts 283°
2026-04-29 01:47 -43.98272 -131.04115 36233 ft 411 kts 295°
2026-04-29 01:48 -43.95710 -131.11197 36234 ft 410 kts 298°
2026-04-29 01:48 -43.93071 -131.18161 36228 ft 411 kts 298°
2026-04-29 01:49 -43.90383 -131.25214 36228 ft 409 kts 298°
2026-04-29 01:49 -43.87697 -131.32231 36238 ft 411 kts 298°
2026-04-29 01:50 -43.85012 -131.39224 36239 ft 410 kts 299°
2026-04-29 01:50 -43.82339 -131.46166 36234 ft 411 kts 299°
2026-04-29 01:51 -43.79639 -131.53155 36232 ft 412 kts 298°
2026-04-29 01:51 -43.76917 -131.60190 36237 ft 410 kts 298°
2026-04-29 01:52 -43.74173 -131.67261 36244 ft 412 kts 299°
2026-04-29 01:52 -43.71463 -131.74225 36250 ft 412 kts 299°
2026-04-29 01:53 -43.68744 -131.81195 36246 ft 413 kts 299°
2026-04-29 01:53 -43.66022 -131.88156 36254 ft 412 kts 299°
2026-04-29 01:54 -43.63276 -131.95165 36248 ft 413 kts 299°
2026-04-29 01:54 -43.60522 -132.02173 36244 ft 414 kts 299°
2026-04-29 01:55 -43.57755 -132.09198 36243 ft 413 kts 299°
2026-04-29 01:55 -43.54982 -132.16219 36240 ft 415 kts 299°
2026-04-29 01:56 -43.52172 -132.23318 36236 ft 414 kts 299°
2026-04-29 01:56 -43.49310 -132.30530 36239 ft 413 kts 299°
2026-04-29 01:57 -43.46487 -132.37625 36230 ft 414 kts 299°
2026-04-29 01:57 -43.43640 -132.44763 36229 ft 413 kts 299°
2026-04-29 01:58 -43.40808 -132.51846 36228 ft 414 kts 299°
2026-04-29 01:58 -43.37929 -132.59029 36225 ft 413 kts 299°
2026-04-29 01:59 -43.35102 -132.66063 36233 ft 413 kts 300°
2026-04-29 01:59 -43.32300 -132.73019 36234 ft 416 kts 299°
2026-04-29 02:00 -43.29501 -132.79952 36234 ft 417 kts 300°
2026-04-29 02:00 -43.26693 -132.86890 36234 ft 416 kts 299°
2026-04-29 02:01 -43.23891 -132.93793 36232 ft 416 kts 299°
2026-04-29 02:01 -43.21040 -133.00806 36230 ft 416 kts 299°
2026-04-29 02:02 -43.18172 -133.07837 36227 ft 416 kts 300°
2026-04-29 02:02 -43.15261 -133.14960 36222 ft 416 kts 300°
2026-04-29 02:03 -43.12397 -133.21950 36225 ft 416 kts 299°
2026-04-29 02:03 -43.09488 -133.29033 36222 ft 417 kts 300°
2026-04-29 02:04 -43.06603 -133.36041 36220 ft 415 kts 299°
2026-04-29 02:04 -43.03736 -133.42986 36213 ft 416 kts 300°
2026-04-29 02:05 -43.00818 -133.50040 36219 ft 416 kts 300°
2026-04-29 02:05 -42.97864 -133.57163 36214 ft 416 kts 299°
2026-04-29 02:06 -42.94933 -133.64210 36211 ft 416 kts 299°
2026-04-29 02:06 -42.92062 -133.71100 36230 ft 416 kts 300°
2026-04-29 02:07 -42.89202 -133.77946 36237 ft 416 kts 300°
2026-04-29 02:07 -42.86340 -133.84781 36239 ft 416 kts 300°
2026-04-29 02:08 -42.83460 -133.91644 36231 ft 416 kts 300°
2026-04-29 02:08 -42.80581 -133.98488 36230 ft 416 kts 300°
2026-04-29 02:09 -42.77710 -134.05296 36230 ft 416 kts 300°
2026-04-29 02:09 -42.74783 -134.12219 36229 ft 417 kts 300°
2026-04-29 02:10 -42.71823 -134.19206 36222 ft 417 kts 300°
2026-04-29 02:10 -42.68885 -134.26123 36229 ft 416 kts 300°
2026-04-29 02:11 -42.65901 -134.33133 36219 ft 417 kts 300°
2026-04-29 02:11 -42.62891 -134.40187 36224 ft 416 kts 300°
2026-04-29 02:12 -42.59943 -134.47081 36222 ft 416 kts 300°
2026-04-29 02:12 -42.56899 -134.54179 36222 ft 416 kts 300°
2026-04-29 02:13 -42.53883 -134.61197 36215 ft 417 kts 300°
2026-04-29 02:13 -42.50941 -134.68027 36227 ft 415 kts 300°
2026-04-29 02:14 -42.48015 -134.74803 36226 ft 416 kts 300°
2026-04-29 02:14 -42.45081 -134.81581 36229 ft 416 kts 300°
2026-04-29 02:15 -42.42145 -134.88350 36222 ft 417 kts 300°
2026-04-29 02:15 -42.39236 -134.95041 36225 ft 416 kts 300°
2026-04-29 02:16 -42.36248 -135.01897 36222 ft 416 kts 300°
2026-04-29 02:16 -42.33233 -135.08800 36221 ft 416 kts 300°
2026-04-29 02:17 -42.30233 -135.15654 36217 ft 417 kts 300°
2026-04-29 02:17 -42.27236 -135.22482 36222 ft 416 kts 300°
2026-04-29 02:18 -42.24252 -135.29268 36218 ft 416 kts 300°
2026-04-29 02:18 -42.21234 -135.36113 36216 ft 416 kts 300°
2026-04-29 02:19 -42.18225 -135.42923 36213 ft 415 kts 300°
2026-04-29 02:19 -42.15253 -135.49634 36213 ft 416 kts 300°
2026-04-29 02:20 -42.12206 -135.56453 36212 ft 416 kts 300°
2026-04-29 02:20 -42.09186 -135.63264 36210 ft 414 kts 300°
2026-04-29 02:21 -42.06220 -135.69928 36227 ft 415 kts 301°
2026-04-29 02:21 -42.03246 -135.76587 36223 ft 415 kts 301°
2026-04-29 02:22 -42.00273 -135.83229 36220 ft 414 kts 300°
2026-04-29 02:22 -41.97295 -135.89865 36220 ft 414 kts 301°
2026-04-29 02:23 -41.94323 -135.96472 36218 ft 414 kts 301°
2026-04-29 02:23 -41.91319 -136.03136 36214 ft 415 kts 301°
2026-04-29 02:24 -41.88278 -136.09863 36220 ft 415 kts 300°
2026-04-29 02:25 -41.83756 -136.19844 36220 ft 416 kts 301°
2026-04-29 02:25 -41.80755 -136.26450 36217 ft 417 kts 300°
2026-04-29 02:26 -41.77729 -136.33093 36213 ft 416 kts 300°
2026-04-29 02:26 -41.74694 -136.39743 36212 ft 416 kts 300°
2026-04-29 02:27 -41.71659 -136.46379 36213 ft 418 kts 300°
2026-04-29 02:27 -41.68607 -136.53036 36210 ft 416 kts 300°
2026-04-29 02:28 -41.65511 -136.59775 36213 ft 417 kts 300°
2026-04-29 02:28 -41.62446 -136.66432 36222 ft 417 kts 301°
2026-04-29 02:29 -41.59399 -136.73035 36218 ft 417 kts 301°
2026-04-29 02:29 -41.56349 -136.79631 36217 ft 418 kts 301°
2026-04-29 02:30 -41.53294 -136.86221 36217 ft 418 kts 301°
2026-04-29 02:30 -41.50240 -136.92796 36223 ft 417 kts 301°
2026-04-29 02:31 -41.47151 -136.99431 36218 ft 417 kts 301°
2026-04-29 02:31 -41.44011 -137.06163 36219 ft 418 kts 300°
2026-04-29 02:32 -41.40874 -137.12871 36220 ft 418 kts 300°
2026-04-29 02:32 -41.37764 -137.19508 36221 ft 416 kts 301°
2026-04-29 02:33 -41.34603 -137.26237 36223 ft 418 kts 301°
2026-04-29 02:33 -41.31455 -137.32928 36211 ft 419 kts 301°
2026-04-29 02:34 -41.28286 -137.39645 36214 ft 417 kts 300°
2026-04-29 02:34 -41.25125 -137.46333 36213 ft 418 kts 300°
2026-04-29 02:35 -41.21938 -137.53059 36212 ft 417 kts 300°
2026-04-29 02:35 -41.18790 -137.59689 36208 ft 418 kts 301°
2026-04-29 02:36 -41.15603 -137.66386 36213 ft 417 kts 301°
2026-04-29 02:36 -41.12501 -137.72891 36219 ft 418 kts 301°
2026-04-29 02:37 -41.09403 -137.79376 36219 ft 418 kts 301°
2026-04-29 02:37 -41.06303 -137.85846 36222 ft 416 kts 301°
2026-04-29 02:38 -41.03187 -137.92340 36220 ft 415 kts 301°
2026-04-29 02:38 -41.00075 -137.98811 36213 ft 416 kts 301°
2026-04-29 02:39 -40.96925 -138.05348 36216 ft 415 kts 301°
2026-04-29 02:39 -40.93774 -138.11873 36214 ft 417 kts 301°
2026-04-29 02:40 -40.90609 -138.18410 36208 ft 417 kts 301°
2026-04-29 02:40 -40.87460 -138.24904 36219 ft 418 kts 301°
2026-04-29 02:41 -40.84319 -138.31366 36215 ft 418 kts 301°
2026-04-29 02:41 -40.81187 -138.37796 36211 ft 417 kts 300°
2026-04-29 02:42 -40.78041 -138.44241 36215 ft 418 kts 301°
2026-04-29 02:42 -40.74868 -138.50729 36209 ft 418 kts 300°
2026-04-29 02:43 -40.71634 -138.57329 36205 ft 418 kts 301°
2026-04-29 02:43 -40.68432 -138.63846 36212 ft 418 kts 301°
2026-04-29 02:44 -40.65272 -138.70267 36211 ft 419 kts 301°
2026-04-29 02:44 -40.62099 -138.76700 36218 ft 419 kts 301°
2026-04-29 02:45 -40.58924 -138.83124 36217 ft 418 kts 301°
2026-04-29 02:45 -40.55743 -138.89546 36211 ft 418 kts 301°
2026-04-29 02:46 -40.52531 -138.96019 36210 ft 419 kts 301°
2026-04-29 02:46 -40.49337 -139.02440 36207 ft 420 kts 301°
2026-04-29 02:47 -40.46097 -139.08942 36213 ft 419 kts 301°
2026-04-29 02:47 -40.42857 -139.15430 36212 ft 420 kts 301°
2026-04-29 02:48 -40.39590 -139.21956 36207 ft 420 kts 301°
2026-04-29 02:48 -40.36354 -139.28409 36204 ft 419 kts 301°
2026-04-29 02:49 -40.33102 -139.34880 36210 ft 420 kts 301°
2026-04-29 02:49 -40.29852 -139.41336 36202 ft 419 kts 301°
2026-04-29 02:50 -40.26548 -139.47882 36193 ft 419 kts 301°
2026-04-29 02:50 -40.23266 -139.54372 36198 ft 420 kts 301°
2026-04-29 02:51 -40.20002 -139.60814 36195 ft 419 kts 301°
2026-04-29 02:51 -40.16755 -139.67207 36209 ft 420 kts 302°
2026-04-29 02:52 -40.13512 -139.73581 36200 ft 419 kts 302°
2026-04-29 02:52 -40.10260 -139.79959 36204 ft 419 kts 302°
2026-04-29 02:53 -40.07013 -139.86316 36201 ft 420 kts 301°
2026-04-29 02:53 -40.03754 -139.92682 36201 ft 420 kts 302°
2026-04-29 02:54 -40.00984 -139.99332 36189 ft 419 kts 291°
2026-04-29 02:54 -39.99554 -140.06679 36189 ft 420 kts 278°
2026-04-29 02:55 -39.99708 -140.14320 36190 ft 425 kts 265°
2026-04-29 02:55 -40.00474 -140.21999 36188 ft 424 kts 267°
2026-04-29 02:56 -40.01018 -140.29631 36182 ft 422 kts 269°
2026-04-29 02:56 -40.01438 -140.37288 36180 ft 422 kts 269°
2026-04-29 02:57 -40.01796 -140.44948 36182 ft 423 kts 270°
2026-04-29 02:57 -40.02126 -140.52727 36176 ft 422 kts 270°
2026-04-29 02:58 -40.02440 -140.60603 36178 ft 421 kts 270°
2026-04-29 02:58 -40.02738 -140.68388 36190 ft 422 kts 270°
2026-04-29 02:59 -40.03022 -140.76031 36184 ft 423 kts 271°
2026-04-29 02:59 -40.03301 -140.83693 36183 ft 423 kts 271°
2026-04-29 03:00 -40.03574 -140.91363 36183 ft 423 kts 270°
2026-04-29 03:00 -40.03842 -140.99030 36181 ft 423 kts 271°
2026-04-29 03:01 -40.04107 -141.06790 36171 ft 423 kts 270°
2026-04-29 03:01 -40.04370 -141.14618 36169 ft 424 kts 270°
2026-04-29 03:02 -40.04630 -141.22523 36165 ft 422 kts 270°
2026-04-29 03:02 -40.04878 -141.30250 36171 ft 422 kts 270°
2026-04-29 03:03 -40.05126 -141.38126 36174 ft 421 kts 270°
2026-04-29 03:03 -40.05366 -141.45917 36175 ft 421 kts 270°
2026-04-29 03:04 -40.05605 -141.53827 36179 ft 421 kts 270°
2026-04-29 03:04 -40.05836 -141.61681 36172 ft 421 kts 270°
2026-04-29 03:05 -40.06059 -141.69424 36186 ft 421 kts 271°
2026-04-29 03:05 -40.06275 -141.77101 36183 ft 422 kts 271°
2026-04-29 03:06 -40.06484 -141.84721 36184 ft 421 kts 271°
2026-04-29 03:06 -40.06689 -141.92371 36178 ft 423 kts 271°
2026-04-29 03:07 -40.06889 -142.00038 36178 ft 423 kts 271°
2026-04-29 03:07 -40.07089 -142.07889 36171 ft 423 kts 271°
2026-04-29 03:08 -40.07281 -142.15622 36172 ft 422 kts 271°
2026-04-29 03:08 -40.07471 -142.23482 36170 ft 423 kts 271°
2026-04-29 03:09 -40.07657 -142.31389 36169 ft 422 kts 271°
2026-04-29 03:09 -40.07836 -142.39293 36168 ft 422 kts 271°
2026-04-29 03:10 -40.08008 -142.47052 36167 ft 423 kts 271°
2026-04-29 03:10 -40.08178 -142.54985 36166 ft 422 kts 271°
2026-04-29 03:11 -40.08341 -142.62871 36162 ft 423 kts 271°
2026-04-29 03:11 -40.08496 -142.70609 36175 ft 424 kts 272°
2026-04-29 03:12 -40.08646 -142.78294 36174 ft 424 kts 272°
2026-04-29 03:12 -40.08790 -142.85992 36176 ft 423 kts 272°
2026-04-29 03:13 -40.08929 -142.93703 36176 ft 423 kts 272°
2026-04-29 03:13 -40.09063 -143.01393 36174 ft 423 kts 272°
2026-04-29 03:14 -40.09194 -143.09193 36168 ft 424 kts 272°
2026-04-29 03:14 -40.09320 -143.17041 36171 ft 423 kts 272°
2026-04-29 03:15 -40.09441 -143.24895 36172 ft 423 kts 272°
2026-04-29 03:15 -40.09558 -143.32822 36169 ft 423 kts 272°
2026-04-29 03:16 -40.09669 -143.40723 36170 ft 425 kts 272°
2026-04-29 03:16 -40.09776 -143.48779 36166 ft 425 kts 272°
2026-04-29 03:17 -40.09877 -143.56700 36166 ft 425 kts 272°
2026-04-29 03:17 -40.09971 -143.64597 36163 ft 425 kts 272°
2026-04-29 03:18 -40.10058 -143.72295 36178 ft 425 kts 272°
2026-04-29 03:18 -40.10140 -143.80003 36172 ft 425 kts 272°
2026-04-29 03:19 -40.10217 -143.87691 36175 ft 425 kts 272°
2026-04-29 03:19 -40.10289 -143.95418 36176 ft 427 kts 272°
2026-04-29 03:20 -40.10357 -144.03174 36173 ft 427 kts 272°
2026-04-29 03:20 -40.10420 -144.11107 36170 ft 427 kts 272°
2026-04-29 03:21 -40.10478 -144.19090 36172 ft 427 kts 272°
2026-04-29 03:21 -40.10531 -144.26999 36174 ft 428 kts 272°
2026-04-29 03:22 -40.10577 -144.34880 36169 ft 427 kts 272°
2026-04-29 03:22 -40.10618 -144.42651 36165 ft 429 kts 272°
2026-04-29 03:23 -40.10654 -144.50432 36169 ft 431 kts 272°
2026-04-29 03:23 -40.10685 -144.58276 36166 ft 431 kts 272°
2026-04-29 03:24 -40.10710 -144.66081 36172 ft 432 kts 273°
2026-04-29 03:24 -40.10730 -144.73952 36179 ft 432 kts 273°
2026-04-29 03:25 -40.10745 -144.81805 36179 ft 433 kts 273°
2026-04-29 03:25 -40.10755 -144.89613 36178 ft 433 kts 273°
2026-04-29 03:26 -40.10759 -144.97507 36177 ft 432 kts 273°
2026-04-29 03:26 -40.10758 -145.05391 36175 ft 434 kts 273°
2026-04-29 03:27 -40.10752 -145.13264 36174 ft 434 kts 273°
2026-04-29 03:27 -40.10740 -145.21144 36178 ft 434 kts 273°
2026-04-29 03:28 -40.10724 -145.28979 36173 ft 434 kts 273°
2026-04-29 03:28 -40.10701 -145.36836 36170 ft 434 kts 273°
2026-04-29 03:29 -40.10674 -145.44713 36176 ft 436 kts 272°
2026-04-29 03:29 -40.10640 -145.52632 36176 ft 435 kts 273°
2026-04-29 03:30 -40.10601 -145.60605 36179 ft 436 kts 273°
2026-04-29 03:30 -40.10558 -145.68512 36186 ft 436 kts 273°
2026-04-29 03:31 -40.10482 -145.80371 36192 ft 437 kts 273°
2026-04-29 03:31 -40.10424 -145.88295 36189 ft 436 kts 273°
2026-04-29 03:32 -40.10361 -145.96233 36193 ft 437 kts 273°
2026-04-29 03:32 -40.10293 -146.04161 36191 ft 437 kts 273°
2026-04-29 03:33 -40.10219 -146.12091 36195 ft 438 kts 273°
2026-04-29 03:33 -40.10140 -146.20046 36194 ft 439 kts 273°
2026-04-29 03:34 -40.10055 -146.27989 36199 ft 439 kts 273°
2026-04-29 03:34 -40.09965 -146.35942 36198 ft 439 kts 273°
2026-04-29 03:35 -40.09869 -146.43944 36200 ft 440 kts 273°
2026-04-29 03:35 -40.09768 -146.51888 36209 ft 440 kts 273°
2026-04-29 03:36 -40.09661 -146.59863 36207 ft 440 kts 273°
2026-04-29 03:36 -40.09548 -146.67856 36217 ft 439 kts 274°
2026-04-29 03:37 -40.09430 -146.75854 36216 ft 440 kts 273°
2026-04-29 03:37 -40.09306 -146.83858 36213 ft 440 kts 273°
2026-04-29 03:38 -40.09177 -146.91821 36213 ft 441 kts 274°
2026-04-29 03:38 -40.09043 -146.99799 36217 ft 441 kts 273°
2026-04-29 03:39 -40.08902 -147.07838 36216 ft 441 kts 273°
2026-04-29 03:39 -40.08757 -147.15808 36215 ft 442 kts 273°
2026-04-29 03:40 -40.08604 -147.23872 36215 ft 443 kts 273°
2026-04-29 03:40 -40.08447 -147.31882 36212 ft 443 kts 273°
2026-04-29 03:41 -40.08284 -147.39896 36214 ft 443 kts 273°
2026-04-29 03:41 -40.08116 -147.47946 36209 ft 443 kts 273°
2026-04-29 03:42 -40.07941 -147.56009 36208 ft 443 kts 273°
2026-04-29 03:42 -40.07762 -147.64004 36209 ft 443 kts 273°
2026-04-29 03:43 -40.07575 -147.72090 36217 ft 443 kts 274°
2026-04-29 03:43 -40.07385 -147.80087 36221 ft 444 kts 274°
2026-04-29 03:44 -40.07189 -147.88119 36216 ft 444 kts 274°
2026-04-29 03:44 -40.06986 -147.96199 36218 ft 445 kts 274°
2026-04-29 03:45 -40.06778 -148.04230 36225 ft 444 kts 273°
2026-04-29 03:45 -40.06564 -148.12321 36217 ft 445 kts 274°
2026-04-29 03:46 -40.06345 -148.20361 36220 ft 444 kts 273°
2026-04-29 03:46 -40.06121 -148.28375 36220 ft 443 kts 273°
2026-04-29 03:47 -40.05890 -148.36441 36220 ft 444 kts 273°
2026-04-29 03:47 -40.05654 -148.44496 36223 ft 445 kts 273°
2026-04-29 03:48 -40.05413 -148.52554 36233 ft 445 kts 273°
2026-04-29 03:48 -40.05164 -148.60648 36233 ft 445 kts 273°
2026-04-29 03:49 -40.04911 -148.68718 36245 ft 445 kts 274°
2026-04-29 03:49 -40.04651 -148.76816 36250 ft 446 kts 274°
2026-04-29 03:50 -40.04384 -148.84952 36246 ft 445 kts 274°
2026-04-29 03:50 -40.04114 -148.93008 36249 ft 447 kts 274°
2026-04-29 03:51 -40.03838 -149.01111 36261 ft 446 kts 274°
2026-04-29 03:51 -40.03557 -149.09154 36254 ft 446 kts 274°
2026-04-29 03:52 -40.03270 -149.17232 36258 ft 446 kts 274°
2026-04-29 03:52 -40.02976 -149.25319 36258 ft 447 kts 274°
2026-04-29 03:53 -40.02676 -149.33421 36252 ft 446 kts 274°
2026-04-29 03:53 -40.02372 -149.41504 36242 ft 447 kts 274°
2026-04-29 03:54 -40.02061 -149.49602 36244 ft 447 kts 274°
2026-04-29 03:54 -40.01746 -149.57657 36239 ft 447 kts 274°
2026-04-29 03:55 -40.01425 -149.65749 36243 ft 448 kts 274°
2026-04-29 03:55 -40.01096 -149.73863 36253 ft 448 kts 274°
2026-04-29 03:56 -40.00759 -149.82048 36254 ft 448 kts 274°
2026-04-29 03:56 -40.00420 -149.90155 36260 ft 449 kts 274°
2026-04-29 03:57 -40.00075 -149.98250 36259 ft 448 kts 274°
2026-04-29 03:57 -40.00093 -150.06393 36261 ft 449 kts 268°
2026-04-29 03:58 -40.00522 -150.14540 36262 ft 450 kts 268°
2026-04-29 03:58 -40.00907 -150.22702 36259 ft 451 kts 268°
2026-04-29 03:59 -40.01264 -150.30875 36257 ft 451 kts 268°
2026-04-29 03:59 -40.01601 -150.39002 36259 ft 450 kts 268°
2026-04-29 04:00 -40.01929 -150.47179 36257 ft 452 kts 268°
2026-04-29 04:00 -40.02249 -150.55360 36254 ft 450 kts 268°
2026-04-29 04:01 -40.02561 -150.63535 36260 ft 451 kts 268°
2026-04-29 04:01 -40.02866 -150.71701 36281 ft 452 kts 268°
2026-04-29 04:02 -40.03164 -150.79848 36274 ft 450 kts 268°
2026-04-29 04:02 -40.03457 -150.88039 36282 ft 451 kts 268°
2026-04-29 04:03 -40.03744 -150.96216 36282 ft 452 kts 268°
2026-04-29 04:03 -40.04026 -151.04404 36280 ft 453 kts 268°
2026-04-29 04:04 -40.04304 -151.12640 36278 ft 453 kts 268°
2026-04-29 04:04 -40.04574 -151.20833 36280 ft 453 kts 268°
2026-04-29 04:05 -40.04840 -151.29065 36281 ft 454 kts 268°
2026-04-29 04:05 -40.05101 -151.37329 36275 ft 454 kts 268°
2026-04-29 04:06 -40.05355 -151.45538 36275 ft 454 kts 268°
2026-04-29 04:06 -40.05603 -151.53792 36274 ft 454 kts 268°
2026-04-29 04:07 -40.05847 -151.62059 36276 ft 454 kts 268°
2026-04-29 04:07 -40.06083 -151.70282 36284 ft 454 kts 268°
2026-04-29 04:08 -40.06313 -151.78497 36283 ft 454 kts 268°
2026-04-29 04:08 -40.06540 -151.86801 36282 ft 455 kts 268°
2026-04-29 04:09 -40.06759 -151.95029 36281 ft 455 kts 268°
2026-04-29 04:09 -40.06972 -152.03247 36280 ft 455 kts 268°
2026-04-29 04:10 -40.07181 -152.11549 36281 ft 457 kts 268°
2026-04-29 04:10 -40.07385 -152.19897 36280 ft 457 kts 268°
2026-04-29 04:11 -40.07583 -152.28204 36281 ft 459 kts 268°
2026-04-29 04:11 -40.07773 -152.36497 36277 ft 459 kts 268°
2026-04-29 04:12 -40.07959 -152.44806 36285 ft 461 kts 268°
2026-04-29 04:12 -40.08140 -152.53189 36291 ft 461 kts 268°
2026-04-29 04:13 -40.08314 -152.61526 36287 ft 460 kts 268°
2026-04-29 04:13 -40.08482 -152.69884 36297 ft 460 kts 269°
2026-04-29 04:14 -40.08644 -152.78238 36299 ft 460 kts 269°
2026-04-29 04:14 -40.08801 -152.86575 36303 ft 461 kts 269°
2026-04-29 04:15 -40.08952 -152.94968 36301 ft 461 kts 269°
2026-04-29 04:15 -40.09097 -153.03387 36304 ft 463 kts 268°
2026-04-29 04:16 -40.09237 -153.11795 36308 ft 464 kts 268°
2026-04-29 04:16 -40.09370 -153.20233 36304 ft 465 kts 268°
2026-04-29 04:17 -40.09497 -153.28635 36302 ft 464 kts 268°
2026-04-29 04:17 -40.09619 -153.37151 36303 ft 465 kts 268°
2026-04-29 04:18 -40.09734 -153.45550 36304 ft 465 kts 268°
2026-04-29 04:18 -40.09844 -153.54066 36299 ft 466 kts 268°
2026-04-29 04:19 -40.09947 -153.62540 36301 ft 468 kts 268°
2026-04-29 04:19 -40.10045 -153.71033 36306 ft 467 kts 269°
2026-04-29 04:20 -40.10136 -153.79552 36306 ft 468 kts 269°
2026-04-29 04:20 -40.10221 -153.88051 36303 ft 468 kts 269°
2026-04-29 04:21 -40.10300 -153.96556 36304 ft 469 kts 269°
2026-04-29 04:21 -40.10372 -154.05078 36302 ft 470 kts 269°
2026-04-29 04:22 -40.10439 -154.13647 36300 ft 470 kts 269°
2026-04-29 04:22 -40.10499 -154.22180 36303 ft 470 kts 269°
2026-04-29 04:23 -40.10553 -154.30708 36306 ft 470 kts 269°
2026-04-29 04:23 -40.10601 -154.39259 36308 ft 470 kts 268°
2026-04-29 04:24 -40.10643 -154.47812 36308 ft 471 kts 268°
2026-04-29 04:24 -40.10678 -154.56339 36317 ft 470 kts 268°
2026-04-29 04:25 -40.10707 -154.64905 36321 ft 471 kts 268°
2026-04-29 04:25 -40.10730 -154.73465 36319 ft 474 kts 269°
2026-04-29 04:26 -40.10746 -154.82047 36324 ft 474 kts 269°
2026-04-29 04:26 -40.10756 -154.90642 36319 ft 474 kts 269°
2026-04-29 04:27 -40.10760 -154.99287 36327 ft 475 kts 269°
2026-04-29 04:27 -40.10757 -155.07903 36329 ft 475 kts 269°
2026-04-29 04:28 -40.10748 -155.16495 36327 ft 477 kts 269°
2026-04-29 04:28 -40.10732 -155.25140 36323 ft 476 kts 269°
2026-04-29 04:29 -40.10710 -155.33801 36315 ft 476 kts 269°
2026-04-29 04:29 -40.10682 -155.42454 36324 ft 477 kts 268°
2026-04-29 04:30 -40.10648 -155.51109 36325 ft 479 kts 269°
2026-04-29 04:31 -40.10583 -155.64111 36321 ft 478 kts 269°
2026-04-29 04:31 -40.10532 -155.72798 36320 ft 480 kts 269°
2026-04-29 04:32 -40.10474 -155.81471 36316 ft 479 kts 269°
2026-04-29 04:32 -40.10410 -155.90184 36319 ft 479 kts 269°
2026-04-29 04:33 -40.10339 -155.98859 36327 ft 480 kts 269°
2026-04-29 04:33 -40.10262 -156.07535 36336 ft 479 kts 269°
2026-04-29 04:34 -40.10179 -156.16254 36326 ft 481 kts 269°
2026-04-29 04:34 -40.10088 -156.24992 36340 ft 480 kts 269°
2026-04-29 04:35 -40.09991 -156.33679 36345 ft 481 kts 269°
2026-04-29 04:35 -40.09888 -156.42394 36345 ft 482 kts 269°
2026-04-29 04:36 -40.09777 -156.51123 36340 ft 482 kts 269°
2026-04-29 04:36 -40.09661 -156.59863 36343 ft 482 kts 269°
2026-04-29 04:37 -40.09537 -156.68628 36347 ft 483 kts 269°
2026-04-29 04:37 -40.09406 -156.77397 36344 ft 484 kts 269°
2026-04-29 04:38 -40.09270 -156.86112 36342 ft 483 kts 269°
2026-04-29 04:38 -40.09126 -156.94885 36349 ft 483 kts 269°
2026-04-29 04:39 -40.08977 -157.03619 36348 ft 484 kts 269°
2026-04-29 04:39 -40.08819 -157.12425 36348 ft 484 kts 269°
2026-04-29 04:40 -40.08655 -157.21207 36350 ft 485 kts 269°
2026-04-29 04:40 -40.08483 -157.30055 36349 ft 485 kts 269°
2026-04-29 04:41 -40.08306 -157.38853 36343 ft 486 kts 269°
2026-04-29 04:41 -40.08122 -157.47643 36344 ft 486 kts 269°
2026-04-29 04:42 -40.07930 -157.56508 36350 ft 486 kts 269°
2026-04-29 04:42 -40.07732 -157.65321 36354 ft 487 kts 270°
2026-04-29 04:43 -40.07526 -157.74202 36347 ft 487 kts 270°
2026-04-29 04:43 -40.07314 -157.83023 36366 ft 488 kts 270°
2026-04-29 04:44 -40.07096 -157.91870 36364 ft 488 kts 270°
2026-04-29 04:44 -40.06871 -158.00678 36365 ft 487 kts 270°
2026-04-29 04:45 -40.06639 -158.09521 36366 ft 488 kts 269°
2026-04-29 04:45 -40.06400 -158.18365 36359 ft 489 kts 270°
2026-04-29 04:46 -40.06153 -158.27232 36362 ft 489 kts 269°
2026-04-29 04:46 -40.05901 -158.36069 36359 ft 490 kts 269°
2026-04-29 04:47 -40.05640 -158.44972 36367 ft 489 kts 270°
2026-04-29 04:47 -40.05374 -158.53810 36368 ft 489 kts 270°
2026-04-29 04:48 -40.05101 -158.62682 36362 ft 490 kts 270°
2026-04-29 04:48 -40.04820 -158.71558 36375 ft 490 kts 270°
2026-04-29 04:49 -40.04534 -158.80408 36365 ft 491 kts 270°
2026-04-29 04:49 -40.04239 -158.89302 36367 ft 492 kts 270°
2026-04-29 04:50 -40.03936 -158.98248 36368 ft 492 kts 270°
2026-04-29 04:50 -40.03628 -159.07127 36366 ft 491 kts 270°
2026-04-29 04:51 -40.03315 -159.15976 36364 ft 492 kts 270°
2026-04-29 04:51 -40.02992 -159.24873 36370 ft 492 kts 270°
2026-04-29 04:52 -40.02661 -159.33847 36370 ft 494 kts 270°
2026-04-29 04:52 -40.02324 -159.42769 36362 ft 494 kts 270°
2026-04-29 04:53 -40.01979 -159.51704 36369 ft 494 kts 270°
2026-04-29 04:53 -40.01630 -159.60612 36363 ft 494 kts 270°
2026-04-29 04:54 -40.01272 -159.69531 36363 ft 494 kts 271°
2026-04-29 04:54 -40.00907 -159.78473 36361 ft 494 kts 271°
2026-04-29 04:55 -40.00534 -159.87430 36356 ft 494 kts 271°
2026-04-29 04:55 -40.00155 -159.96394 36363 ft 496 kts 271°
2026-04-29 04:56 -39.99998 -160.05351 36361 ft 493 kts 264°
2026-04-29 04:56 -40.00468 -160.14252 36369 ft 493 kts 264°
2026-04-29 04:57 -40.00905 -160.23224 36367 ft 493 kts 264°
2026-04-29 04:57 -40.01300 -160.32124 36369 ft 493 kts 264°
2026-04-29 04:58 -40.01676 -160.41072 36368 ft 494 kts 264°
2026-04-29 04:58 -40.02037 -160.50075 36367 ft 495 kts 264°
2026-04-29 04:59 -40.02386 -160.59013 36371 ft 495 kts 264°
2026-04-29 04:59 -40.02726 -160.67993 36367 ft 496 kts 265°
2026-04-29 05:00 -40.03057 -160.76938 36372 ft 495 kts 265°
2026-04-29 05:00 -40.03380 -160.85892 36368 ft 495 kts 265°
2026-04-29 05:01 -40.03699 -160.94910 36368 ft 496 kts 265°
2026-04-29 05:01 -40.04008 -161.03877 36366 ft 497 kts 265°
2026-04-29 05:02 -40.04310 -161.12811 36368 ft 497 kts 265°
2026-04-29 05:02 -40.04606 -161.21808 36364 ft 497 kts 265°
2026-04-29 05:03 -40.04895 -161.30804 36363 ft 497 kts 265°
2026-04-29 05:03 -40.05179 -161.39833 36367 ft 496 kts 265°
2026-04-29 05:04 -40.05453 -161.48764 36367 ft 497 kts 265°
2026-04-29 05:04 -40.05722 -161.57797 36368 ft 497 kts 265°
2026-04-29 05:05 -40.05985 -161.66818 36365 ft 497 kts 266°
2026-04-29 05:05 -40.06240 -161.75865 36366 ft 498 kts 266°
2026-04-29 05:06 -40.06488 -161.84886 36376 ft 498 kts 266°
2026-04-29 05:06 -40.06730 -161.93918 36383 ft 497 kts 266°
2026-04-29 05:07 -40.06965 -162.02951 36386 ft 498 kts 266°
2026-04-29 05:07 -40.07191 -162.11975 36384 ft 499 kts 265°
2026-04-29 05:08 -40.07412 -162.21019 36383 ft 499 kts 266°
2026-04-29 05:08 -40.07627 -162.30100 36389 ft 500 kts 266°
2026-04-29 05:09 -40.07834 -162.39162 36387 ft 499 kts 266°
2026-04-29 05:09 -40.08035 -162.48279 36386 ft 499 kts 266°
2026-04-29 05:10 -40.08226 -162.57289 36386 ft 500 kts 266°
2026-04-29 05:10 -40.08413 -162.66376 36384 ft 500 kts 266°
2026-04-29 05:11 -40.08592 -162.75478 36384 ft 500 kts 266°
2026-04-29 05:11 -40.08763 -162.84566 36377 ft 501 kts 266°
2026-04-29 05:12 -40.08929 -162.93652 36369 ft 500 kts 266°
2026-04-29 05:12 -40.09085 -163.02693 36384 ft 501 kts 266°
2026-04-29 05:13 -40.09237 -163.11812 36381 ft 501 kts 266°
2026-04-29 05:13 -40.09381 -163.20966 36382 ft 502 kts 266°
2026-04-29 05:14 -40.09517 -163.30023 36378 ft 502 kts 266°
2026-04-29 05:14 -40.09647 -163.39149 36374 ft 502 kts 266°
2026-04-29 05:15 -40.09769 -163.48236 36368 ft 502 kts 266°
2026-04-29 05:15 -40.09884 -163.57336 36369 ft 502 kts 266°
2026-04-29 05:16 -40.09993 -163.66461 36364 ft 502 kts 267°
2026-04-29 05:16 -40.10094 -163.75583 36366 ft 503 kts 267°
2026-04-29 05:17 -40.10188 -163.84732 36363 ft 502 kts 267°
2026-04-29 05:17 -40.10275 -163.93877 36370 ft 502 kts 267°
2026-04-29 05:18 -40.10355 -164.02998 36377 ft 503 kts 267°
2026-04-29 05:18 -40.10428 -164.12149 36384 ft 503 kts 267°
2026-04-29 05:19 -40.10492 -164.21132 36385 ft 503 kts 267°
2026-04-29 05:19 -40.10551 -164.30264 36389 ft 503 kts 267°
2026-04-29 05:20 -40.10602 -164.39394 36387 ft 503 kts 267°
2026-04-29 05:20 -40.10646 -164.48503 36386 ft 504 kts 267°
2026-04-29 05:21 -40.10682 -164.57628 36384 ft 503 kts 267°
2026-04-29 05:21 -40.10712 -164.66803 36383 ft 504 kts 268°
2026-04-29 05:22 -40.10735 -164.75894 36381 ft 504 kts 268°
2026-04-29 05:22 -40.10750 -164.85030 36386 ft 503 kts 268°
2026-04-29 05:23 -40.10758 -164.94217 36383 ft 504 kts 268°
2026-04-29 05:23 -40.10759 -165.03368 36389 ft 505 kts 268°
2026-04-29 05:24 -40.10753 -165.12477 36384 ft 505 kts 268°
2026-04-29 05:24 -40.10739 -165.21648 36387 ft 504 kts 268°
2026-04-29 05:25 -40.10719 -165.30856 36387 ft 504 kts 268°
2026-04-29 05:25 -40.10691 -165.39970 36386 ft 504 kts 268°
2026-04-29 05:26 -40.10656 -165.49170 36385 ft 505 kts 268°
2026-04-29 05:26 -40.10613 -165.58336 36388 ft 505 kts 268°
2026-04-29 05:27 -40.10564 -165.67513 36386 ft 505 kts 269°
2026-04-29 05:27 -40.10476 -165.81220 36386 ft 504 kts 269°
2026-04-29 05:28 -40.10408 -165.90389 36384 ft 504 kts 269°
2026-04-29 05:28 -40.10334 -165.99558 36383 ft 504 kts 269°
2026-04-29 05:29 -40.10251 -166.08740 36383 ft 505 kts 269°
2026-04-29 05:29 -40.10162 -166.17953 36392 ft 506 kts 269°
2026-04-29 05:30 -40.10065 -166.27098 36396 ft 506 kts 269°
2026-04-29 05:30 -40.09961 -166.36325 36388 ft 506 kts 269°
2026-04-29 05:31 -40.09850 -166.45441 36381 ft 505 kts 269°
2026-04-29 05:31 -40.09731 -166.54654 36381 ft 506 kts 269°
2026-04-29 05:32 -40.09605 -166.63844 36385 ft 507 kts 269°
2026-04-29 05:32 -40.09472 -166.73030 36382 ft 507 kts 270°
2026-04-29 05:33 -40.09331 -166.82222 36383 ft 506 kts 270°
2026-04-29 05:33 -40.09184 -166.91393 36384 ft 506 kts 270°
2026-04-29 05:34 -40.09030 -167.00555 36381 ft 506 kts 270°
2026-04-29 05:34 -40.08868 -167.09721 36382 ft 507 kts 270°
2026-04-29 05:35 -40.08699 -167.18892 36389 ft 508 kts 270°
2026-04-29 05:35 -40.08521 -167.28139 36382 ft 508 kts 270°
2026-04-29 05:36 -40.08337 -167.37358 36385 ft 507 kts 270°
2026-04-29 05:36 -40.08146 -167.46516 36385 ft 508 kts 270°
2026-04-29 05:37 -40.07947 -167.55725 36383 ft 507 kts 270°
2026-04-29 05:37 -40.07740 -167.64969 36383 ft 507 kts 270°
2026-04-29 05:38 -40.07526 -167.74193 36390 ft 508 kts 271°
2026-04-29 05:38 -40.07305 -167.83398 36382 ft 509 kts 271°
2026-04-29 05:39 -40.07077 -167.92621 36383 ft 509 kts 271°
2026-04-29 05:39 -40.06841 -168.01843 36388 ft 508 kts 271°
2026-04-29 05:40 -40.06596 -168.11127 36387 ft 508 kts 271°
2026-04-29 05:40 -40.06345 -168.20346 36388 ft 509 kts 271°
2026-04-29 05:41 -40.06088 -168.29550 36388 ft 509 kts 271°
2026-04-29 05:41 -40.05824 -168.38733 36390 ft 508 kts 271°
2026-04-29 05:42 -40.05551 -168.47963 36395 ft 509 kts 271°
2026-04-29 05:42 -40.05270 -168.57230 36401 ft 508 kts 271°
2026-04-29 05:43 -40.04984 -168.66403 36399 ft 509 kts 271°
2026-04-29 05:43 -40.04690 -168.75610 36397 ft 509 kts 271°
2026-04-29 05:44 -40.04388 -168.84847 36402 ft 509 kts 272°
2026-04-29 05:44 -40.04079 -168.94055 36404 ft 509 kts 271°
2026-04-29 05:45 -40.03763 -169.03252 36406 ft 508 kts 272°
2026-04-29 05:45 -40.03440 -169.12445 36396 ft 509 kts 272°
2026-04-29 05:46 -40.03110 -169.21626 36386 ft 508 kts 272°
2026-04-29 05:46 -40.02772 -169.30853 36378 ft 508 kts 272°
2026-04-29 05:47 -40.02428 -169.40027 36388 ft 507 kts 272°
2026-04-29 05:47 -40.02077 -169.49190 36390 ft 507 kts 272°
2026-04-29 05:48 -40.01719 -169.58357 36393 ft 508 kts 272°
2026-04-29 05:48 -40.01353 -169.67539 36387 ft 507 kts 272°
2026-04-29 05:49 -40.00980 -169.76691 36384 ft 506 kts 272°
2026-04-29 05:49 -40.00602 -169.85822 36386 ft 505 kts 272°
2026-04-29 05:50 -40.00216 -169.94960 36392 ft 504 kts 272°
2026-04-29 05:50 -39.99763 -170.04079 36385 ft 505 kts 274°
2026-04-29 05:51 -39.99247 -170.13242 36387 ft 505 kts 274°
2026-04-29 05:51 -39.98725 -170.22334 36389 ft 505 kts 274°
2026-04-29 05:52 -39.98194 -170.31461 36389 ft 505 kts 274°
2026-04-29 05:52 -39.97657 -170.40562 36394 ft 505 kts 274°
2026-04-29 05:53 -39.97110 -170.49687 36397 ft 505 kts 274°
2026-04-29 05:53 -39.96556 -170.58820 36400 ft 504 kts 274°
2026-04-29 05:54 -39.95997 -170.67908 36404 ft 503 kts 274°
2026-04-29 05:54 -39.95432 -170.76988 36405 ft 503 kts 274°
2026-04-29 05:55 -39.94861 -170.86032 36406 ft 503 kts 274°
2026-04-29 05:55 -39.94278 -170.95165 36407 ft 504 kts 274°
2026-04-29 05:56 -39.93691 -171.04239 36401 ft 503 kts 274°
2026-04-29 05:56 -39.93097 -171.13315 36405 ft 504 kts 274°
2026-04-29 05:57 -39.92498 -171.22362 36405 ft 503 kts 274°
2026-04-29 05:57 -39.91888 -171.31465 36406 ft 502 kts 274°
2026-04-29 05:58 -39.91278 -171.40453 36404 ft 501 kts 274°
2026-04-29 05:58 -39.90655 -171.49536 36404 ft 502 kts 274°
2026-04-29 05:59 -39.90031 -171.58531 36404 ft 502 kts 274°
2026-04-29 05:59 -39.89396 -171.67567 36398 ft 502 kts 275°
2026-04-29 06:00 -39.88757 -171.76579 36376 ft 502 kts 275°
2026-04-29 06:00 -39.88107 -171.85635 36381 ft 501 kts 275°
2026-04-29 06:01 -39.87455 -171.94621 36384 ft 500 kts 275°
2026-04-29 06:01 -39.86794 -172.03638 36388 ft 500 kts 275°
2026-04-29 06:02 -39.86127 -172.12634 36381 ft 501 kts 275°
2026-04-29 06:02 -39.85455 -172.21597 36393 ft 499 kts 275°
2026-04-29 06:03 -39.84777 -172.30554 36403 ft 498 kts 275°
2026-04-29 06:03 -39.84089 -172.39546 36402 ft 498 kts 275°
2026-04-29 06:04 -39.83401 -172.48462 36404 ft 498 kts 275°
2026-04-29 06:04 -39.82701 -172.57423 36403 ft 498 kts 275°
2026-04-29 06:05 -39.81991 -172.66435 36405 ft 497 kts 275°
2026-04-29 06:05 -39.81280 -172.75359 36403 ft 497 kts 275°
2026-04-29 06:06 -39.80557 -172.84355 36408 ft 497 kts 275°
2026-04-29 06:06 -39.79828 -172.93326 36403 ft 496 kts 275°
2026-04-29 06:07 -39.79099 -173.02223 36403 ft 497 kts 276°
2026-04-29 06:07 -39.78357 -173.11183 36410 ft 497 kts 276°
2026-04-29 06:08 -39.77613 -173.20090 36406 ft 497 kts 276°
2026-04-29 06:08 -39.76855 -173.29082 36405 ft 497 kts 276°
2026-04-29 06:09 -39.76093 -173.38036 36402 ft 496 kts 275°
2026-04-29 06:09 -39.75329 -173.46922 36397 ft 496 kts 275°
2026-04-29 06:10 -39.74555 -173.55856 36388 ft 496 kts 275°
2026-04-29 06:10 -39.73763 -173.64911 36388 ft 503 kts 276°
2026-04-29 06:11 -39.72969 -173.73904 36389 ft 502 kts 276°
2026-04-29 06:11 -39.72166 -173.82913 36389 ft 501 kts 276°
2026-04-29 06:12 -39.71362 -173.91862 36387 ft 500 kts 276°
2026-04-29 06:12 -39.70551 -174.00813 36400 ft 500 kts 276°
2026-04-29 06:13 -39.69729 -174.09792 36411 ft 500 kts 276°
2026-04-29 06:13 -39.68893 -174.18860 36411 ft 500 kts 276°
2026-04-29 06:14 -39.68060 -174.27808 36411 ft 500 kts 276°
2026-04-29 06:14 -39.67206 -174.36911 36403 ft 500 kts 276°
2026-04-29 06:15 -39.66353 -174.45924 36407 ft 500 kts 276°
2026-04-29 06:15 -39.65494 -174.54933 36403 ft 499 kts 276°
2026-04-29 06:16 -39.64626 -174.63947 36404 ft 499 kts 276°
2026-04-29 06:16 -39.63757 -174.72903 36405 ft 500 kts 277°
2026-04-29 06:17 -39.62885 -174.81821 36403 ft 499 kts 276°
2026-04-29 06:17 -39.62006 -174.90742 36403 ft 500 kts 277°
2026-04-29 06:18 -39.61118 -174.99674 36406 ft 500 kts 277°
2026-04-29 06:18 -39.60216 -175.08675 36404 ft 500 kts 277°
2026-04-29 06:19 -39.59308 -175.17664 36402 ft 499 kts 277°
2026-04-29 06:19 -39.58394 -175.26643 36401 ft 498 kts 276°
2026-04-29 06:20 -39.57475 -175.35612 36398 ft 499 kts 276°
2026-04-29 06:20 -39.56549 -175.44559 36398 ft 499 kts 277°
2026-04-29 06:21 -39.55621 -175.53476 36401 ft 500 kts 277°
2026-04-29 06:21 -39.54672 -175.62515 36396 ft 499 kts 277°
2026-04-29 06:22 -39.53734 -175.71385 36394 ft 499 kts 278°
2026-04-29 06:22 -39.52788 -175.80257 36394 ft 499 kts 277°
2026-04-29 06:23 -39.51835 -175.89137 36397 ft 497 kts 277°
2026-04-29 06:23 -39.50876 -175.98009 36395 ft 497 kts 277°
2026-04-29 06:24 -39.49912 -176.06863 36394 ft 495 kts 277°
2026-04-29 06:24 -39.48936 -176.15762 36386 ft 497 kts 277°
2026-04-29 06:25 -39.47956 -176.24628 36384 ft 495 kts 277°
2026-04-29 06:25 -39.46953 -176.33640 36385 ft 494 kts 277°
2026-04-29 06:26 -39.45957 -176.42526 36390 ft 493 kts 277°
2026-04-29 06:26 -39.44962 -176.51337 36392 ft 495 kts 277°
2026-04-29 06:27 -39.43946 -176.60272 36394 ft 493 kts 277°
2026-04-29 06:27 -39.42936 -176.69101 36399 ft 492 kts 278°
2026-04-29 06:28 -39.41930 -176.77828 36400 ft 492 kts 278°
2026-04-29 06:28 -39.40913 -176.86594 36400 ft 492 kts 278°
2026-04-29 06:29 -39.39890 -176.95355 36397 ft 491 kts 278°
2026-04-29 06:29 -39.38865 -177.04065 36393 ft 492 kts 278°
2026-04-29 06:30 -39.37305 -177.17223 36394 ft 491 kts 278°
2026-04-29 06:31 -39.36252 -177.26025 36394 ft 492 kts 278°
2026-04-29 06:31 -39.35181 -177.34920 36390 ft 491 kts 278°
2026-04-29 06:32 -39.34124 -177.43646 36388 ft 491 kts 278°
2026-04-29 06:32 -39.33054 -177.52423 36385 ft 491 kts 278°
2026-04-29 06:33 -39.31975 -177.61215 36381 ft 491 kts 278°
2026-04-29 06:33 -39.30895 -177.69959 36382 ft 490 kts 279°
2026-04-29 06:34 -39.29817 -177.78635 36380 ft 489 kts 278°
2026-04-29 06:34 -39.28736 -177.87274 36379 ft 490 kts 279°
2026-04-29 06:35 -39.27641 -177.95976 36379 ft 490 kts 278°
2026-04-29 06:35 -39.26541 -178.04663 36377 ft 490 kts 279°
2026-04-29 06:36 -39.25428 -178.13400 36378 ft 490 kts 279°
2026-04-29 06:36 -39.24304 -178.22162 36373 ft 489 kts 279°
2026-04-29 06:37 -39.23174 -178.30919 36373 ft 490 kts 278°
2026-04-29 06:37 -39.22041 -178.39647 36372 ft 489 kts 278°
2026-04-29 06:38 -39.20909 -178.48320 36372 ft 488 kts 278°
2026-04-29 06:38 -39.19762 -178.57048 36366 ft 489 kts 279°
2026-04-29 06:39 -39.18611 -178.65758 36360 ft 489 kts 279°
2026-04-29 06:39 -39.17466 -178.74373 36362 ft 488 kts 279°
2026-04-29 06:40 -39.16309 -178.83029 36362 ft 488 kts 279°
2026-04-29 06:40 -39.15153 -178.91621 36360 ft 488 kts 279°
2026-04-29 06:41 -39.13989 -179.00223 36359 ft 489 kts 279°
2026-04-29 06:41 -39.12808 -179.08905 36360 ft 488 kts 279°
2026-04-29 06:42 -39.11616 -179.17615 36358 ft 487 kts 279°
2026-04-29 06:42 -39.10422 -179.26286 36356 ft 488 kts 279°
2026-04-29 06:43 -39.09226 -179.34927 36353 ft 487 kts 279°
2026-04-29 06:43 -39.08023 -179.43568 36353 ft 486 kts 279°
2026-04-29 06:44 -39.06815 -179.52196 36355 ft 486 kts 280°
2026-04-29 06:44 -39.05607 -179.60776 36359 ft 486 kts 280°
2026-04-29 06:45 -39.04398 -179.69318 36359 ft 486 kts 280°
2026-04-29 06:45 -39.03189 -179.77809 36353 ft 486 kts 280°
2026-04-29 06:46 -39.01967 -179.86353 36348 ft 484 kts 280°
2026-04-29 06:46 -39.00731 -179.94942 36344 ft 483 kts 280°
2026-04-29 06:47 -38.99439 179.96523 36347 ft 483 kts 281°
2026-04-29 06:47 -38.98085 179.87990 36333 ft 483 kts 281°
2026-04-29 06:48 -38.96722 179.79451 36316 ft 483 kts 281°
2026-04-29 06:48 -38.95357 179.70953 36322 ft 483 kts 281°
2026-04-29 06:49 -38.93989 179.62486 36316 ft 482 kts 281°
2026-04-29 06:49 -38.92616 179.54025 36320 ft 482 kts 281°
2026-04-29 06:50 -38.91239 179.45583 36328 ft 481 kts 281°
2026-04-29 06:50 -38.89846 179.37082 36322 ft 480 kts 281°
2026-04-29 06:51 -38.88467 179.28709 36327 ft 480 kts 281°
2026-04-29 06:51 -38.87090 179.20386 36313 ft 479 kts 281°
2026-04-29 06:52 -38.85701 179.12030 36321 ft 480 kts 281°
2026-04-29 06:52 -38.84301 179.03644 36313 ft 479 kts 281°
2026-04-29 06:53 -38.82895 178.95265 36310 ft 479 kts 281°
2026-04-29 06:53 -38.81490 178.86932 36309 ft 479 kts 281°
2026-04-29 06:54 -38.80087 178.78645 36305 ft 479 kts 281°
2026-04-29 06:54 -38.78672 178.70328 36310 ft 478 kts 281°
2026-04-29 06:55 -38.77252 178.62019 36308 ft 478 kts 281°
2026-04-29 06:55 -38.75828 178.53728 36312 ft 478 kts 281°
2026-04-29 06:56 -38.74401 178.45451 36307 ft 477 kts 281°
2026-04-29 06:56 -38.72963 178.37149 36297 ft 476 kts 282°
2026-04-29 06:57 -38.71547 178.29011 36316 ft 477 kts 282°
2026-04-29 06:57 -38.70094 178.20700 36316 ft 476 kts 282°
2026-04-29 06:58 -38.68639 178.12411 36308 ft 476 kts 282°
2026-04-29 06:58 -38.67152 178.04144 36213 ft 478 kts 285°
2026-04-29 06:58 -38.66037 178.00092 35831 ft 481 kts 292°
2026-04-29 06:59 -38.64494 177.96292 35490 ft 482 kts 301°
2026-04-29 06:59 -38.62564 177.92830 35151 ft 484 kts 308°
2026-04-29 06:59 -38.60366 177.89517 34811 ft 485 kts 309°
2026-04-29 06:59 -38.58172 177.86278 34475 ft 486 kts 309°
2026-04-29 07:00 -38.55926 177.82976 34136 ft 487 kts 309°
2026-04-29 07:00 -38.53698 177.79707 33780 ft 489 kts 309°
2026-04-29 07:00 -38.51461 177.76433 33410 ft 488 kts 309°
2026-04-29 07:00 -38.49234 177.73181 33042 ft 484 kts 309°
2026-04-29 07:01 -38.47028 177.69963 32672 ft 480 kts 309°
2026-04-29 07:01 -38.44835 177.66771 32304 ft 476 kts 309°
2026-04-29 07:01 -38.42676 177.63629 31937 ft 473 kts 309°
2026-04-29 07:01 -38.40512 177.60486 31572 ft 470 kts 309°
2026-04-29 07:02 -38.38362 177.57367 31300 ft 466 kts 309°
2026-04-29 07:02 -38.36222 177.54263 31054 ft 465 kts 309°
2026-04-29 07:02 -38.34075 177.51155 30803 ft 464 kts 309°
2026-04-29 07:02 -38.31959 177.48094 30553 ft 462 kts 309°
2026-04-29 07:03 -38.29826 177.45012 30302 ft 460 kts 309°
2026-04-29 07:03 -38.27735 177.41994 30047 ft 458 kts 309°
2026-04-29 07:03 -38.25632 177.38960 29785 ft 456 kts 309°
2026-04-29 07:03 -38.23525 177.35925 29520 ft 454 kts 309°
2026-04-29 07:04 -38.21453 177.32944 29263 ft 452 kts 309°
2026-04-29 07:04 -38.19376 177.29959 29008 ft 451 kts 309°
2026-04-29 07:04 -38.17305 177.26985 28752 ft 449 kts 309°
2026-04-29 07:04 -38.15230 177.24011 28495 ft 447 kts 309°
2026-04-29 07:05 -38.13171 177.21060 28240 ft 445 kts 309°
2026-04-29 07:05 -38.11106 177.18105 27982 ft 443 kts 309°
2026-04-29 07:05 -38.09056 177.15173 27725 ft 441 kts 309°
2026-04-29 07:05 -38.07024 177.12271 27468 ft 439 kts 309°
2026-04-29 07:06 -38.04994 177.09372 27212 ft 438 kts 309°
2026-04-29 07:06 -38.02981 177.06502 26957 ft 437 kts 310°
2026-04-29 07:06 -38.00956 177.03615 26702 ft 435 kts 310°
2026-04-29 07:06 -37.98952 177.00763 26447 ft 434 kts 310°
2026-04-29 07:07 -37.96932 176.97888 26188 ft 433 kts 310°
2026-04-29 07:07 -37.94933 176.95048 25932 ft 431 kts 309°
2026-04-29 07:07 -37.93111 176.92101 25675 ft 428 kts 302°
2026-04-29 07:07 -37.91592 176.88832 25411 ft 425 kts 295°
2026-04-29 07:08 -37.90394 176.85455 25155 ft 423 kts 292°
2026-04-29 07:08 -37.89238 176.82024 24897 ft 421 kts 292°
2026-04-29 07:08 -37.88096 176.78633 24643 ft 419 kts 292°
2026-04-29 07:08 -37.86956 176.75259 24388 ft 417 kts 292°
2026-04-29 07:09 -37.85808 176.71867 24131 ft 415 kts 292°
2026-04-29 07:09 -37.84663 176.68489 23874 ft 414 kts 292°
2026-04-29 07:09 -37.83527 176.65143 23614 ft 412 kts 292°
2026-04-29 07:09 -37.82407 176.61847 23359 ft 410 kts 292°
2026-04-29 07:10 -37.81274 176.58517 23099 ft 409 kts 292°
2026-04-29 07:10 -37.80154 176.55232 22837 ft 409 kts 292°
2026-04-29 07:10 -37.79022 176.51915 22573 ft 406 kts 291°
2026-04-29 07:10 -37.77898 176.48628 22309 ft 405 kts 292°
2026-04-29 07:11 -37.76784 176.45372 22049 ft 404 kts 291°
2026-04-29 07:11 -37.75653 176.42072 21785 ft 402 kts 291°
2026-04-29 07:11 -37.74542 176.38832 21528 ft 401 kts 291°
2026-04-29 07:11 -37.73439 176.35617 21265 ft 398 kts 291°
2026-04-29 07:12 -37.72334 176.32404 21010 ft 397 kts 292°
2026-04-29 07:12 -37.71235 176.29210 20756 ft 396 kts 292°
2026-04-29 07:12 -37.70135 176.26018 20502 ft 395 kts 292°
2026-04-29 07:12 -37.69044 176.22853 20251 ft 393 kts 292°
2026-04-29 07:13 -37.67920 176.19713 19994 ft 391 kts 296°
2026-04-29 07:13 -37.66491 176.16765 19741 ft 392 kts 302°
2026-04-29 07:13 -37.64969 176.13911 19486 ft 390 kts 302°
2026-04-29 07:13 -37.63446 176.11070 19103 ft 387 kts 302°
2026-04-29 07:14 -37.61962 176.08304 18614 ft 382 kts 302°
2026-04-29 07:14 -37.60478 176.05539 18109 ft 377 kts 302°
2026-04-29 07:14 -37.59015 176.02815 17613 ft 372 kts 302°
2026-04-29 07:14 -37.57571 176.00131 17116 ft 368 kts 302°
2026-04-29 07:15 -37.56150 175.97488 16620 ft 364 kts 302°
2026-04-29 07:15 -37.54749 175.94887 16135 ft 360 kts 302°
2026-04-29 07:15 -37.53351 175.92293 15645 ft 356 kts 302°
2026-04-29 07:15 -37.51951 175.89696 15144 ft 353 kts 302°
2026-04-29 07:16 -37.50584 175.87163 14660 ft 350 kts 302°
2026-04-29 07:16 -37.49233 175.84660 14188 ft 347 kts 302°
2026-04-29 07:16 -37.47868 175.82135 13690 ft 344 kts 302°
2026-04-29 07:16 -37.46525 175.79652 13208 ft 342 kts 302°
2026-04-29 07:17 -37.45197 175.77199 12731 ft 340 kts 302°
2026-04-29 07:17 -37.43774 175.74811 12245 ft 338 kts 308°
2026-04-29 07:17 -37.42263 175.72601 11683 ft 330 kts 309°
2026-04-29 07:17 -37.40769 175.70456 11198 ft 319 kts 309°
2026-04-29 07:18 -37.39334 175.68394 10855 ft 304 kts 309°
2026-04-29 07:18 -37.38000 175.66472 10809 ft 284 kts 308°
2026-04-29 07:18 -37.36708 175.64607 10801 ft 276 kts 308°
2026-04-29 07:18 -37.35466 175.62814 10543 ft 272 kts 308°
2026-04-29 07:19 -37.34224 175.61021 10254 ft 270 kts 308°
2026-04-29 07:19 -37.32987 175.59239 9940 ft 267 kts 309°
2026-04-29 07:19 -37.31780 175.57500 9549 ft 266 kts 309°
2026-04-29 07:19 -37.30545 175.55721 9058 ft 269 kts 309°
2026-04-29 07:20 -37.29305 175.53937 8576 ft 272 kts 309°
2026-04-29 07:20 -37.28063 175.52150 8076 ft 275 kts 309°
2026-04-29 07:20 -37.26800 175.50336 7553 ft 275 kts 309°
2026-04-29 07:20 -37.25547 175.48537 7148 ft 269 kts 309°
2026-04-29 07:21 -37.24338 175.46802 6781 ft 265 kts 309°
2026-04-29 07:21 -37.23122 175.45056 6410 ft 263 kts 309°
2026-04-29 07:21 -37.21917 175.43329 6036 ft 262 kts 309°
2026-04-29 07:21 -37.20721 175.41615 5669 ft 260 kts 309°
2026-04-29 07:22 -37.19539 175.39922 5302 ft 257 kts 309°
2026-04-29 07:22 -37.18366 175.38243 4956 ft 255 kts 309°
2026-04-29 07:22 -37.17199 175.36572 4670 ft 254 kts 309°
2026-04-29 07:22 -37.16037 175.34912 4370 ft 253 kts 310°
2026-04-29 07:23 -37.14873 175.33247 4112 ft 251 kts 310°
2026-04-29 07:23 -37.13717 175.31595 3863 ft 249 kts 310°
2026-04-29 07:23 -37.12584 175.29979 3646 ft 245 kts 310°
2026-04-29 07:23 -37.11477 175.28400 3575 ft 236 kts 310°
2026-04-29 07:24 -37.10397 175.26857 3526 ft 237 kts 310°
2026-04-29 07:24 -37.09293 175.25284 3478 ft 238 kts 310°
2026-04-29 07:24 -37.08202 175.23729 3426 ft 238 kts 310°
2026-04-29 07:24 -37.07102 175.22162 3376 ft 239 kts 310°
2026-04-29 07:25 -37.06004 175.20598 3329 ft 239 kts 310°
2026-04-29 07:25 -37.04898 175.19025 3261 ft 239 kts 311°
2026-04-29 07:25 -37.03802 175.17465 3189 ft 238 kts 311°
2026-04-29 07:25 -37.02685 175.15878 3114 ft 238 kts 311°
2026-04-29 07:26 -37.01598 175.14333 3040 ft 236 kts 311°
2026-04-29 07:26 -37.00524 175.12808 3011 ft 235 kts 311°
2026-04-29 07:26 -36.99437 175.11266 3008 ft 234 kts 311°
2026-04-29 07:26 -36.98344 175.09715 3008 ft 235 kts 311°
2026-04-29 07:27 -36.97269 175.08189 3007 ft 235 kts 311°
2026-04-29 07:27 -36.96184 175.06651 3000 ft 229 kts 311°
2026-04-29 07:27 -36.95188 175.05188 2990 ft 216 kts 303°
2026-04-29 07:27 -36.94632 175.03488 2986 ft 206 kts 277°
2026-04-29 07:28 -36.94770 175.01741 3007 ft 201 kts 255°
2026-04-29 07:28 -36.95191 175.00124 2990 ft 187 kts 251°
2026-04-29 07:28 -36.95612 174.98651 2980 ft 171 kts 250°
2026-04-29 07:28 -36.96003 174.97276 2801 ft 166 kts 251°
2026-04-29 07:29 -36.96380 174.95932 2590 ft 164 kts 251°
2026-04-29 07:29 -36.96755 174.94592 2378 ft 162 kts 251°
2026-04-29 07:29 -36.97115 174.93300 2169 ft 149 kts 252°
2026-04-29 07:29 -36.97453 174.92088 1978 ft 146 kts 252°
2026-04-29 07:30 -36.97786 174.90894 1783 ft 144 kts 252°
2026-04-29 07:30 -36.98114 174.89720 1589 ft 143 kts 252°
2026-04-29 07:30 -36.98441 174.88545 1395 ft 141 kts 251°
2026-04-29 07:31 -36.99097 174.86189 1005 ft 141 kts 251°
2026-04-29 07:31 -36.99424 174.85014 808 ft 141 kts 251°
2026-04-29 07:31 -36.99745 174.83861 617 ft 140 kts 251°
2026-04-29 07:31 -37.00066 174.82706 426 ft 140 kts 251°
2026-04-29 07:32 -37.00387 174.81552 237 ft 139 kts 251°
2026-04-29 07:32 -37.00703 174.80414 53 ft 139 kts 251°
2026-04-29 07:32 -37.00983 174.79414 35 ft 99 kts 251°